PEQUAWKET POND DAM: From 07/22/2020 00:00 to 09/22/2020 00:00

Date LAKE ELEVATION [FT] PRECIPITATION INCREMENT [IN] PRECIPITATION DAILY TOTAL [IN] AIR TEMPERATURE [F] RESERVOIR RELEASE [CFS]
09/19/2020 11:00 -- -- -- -- 1.0
09/19/2020 10:00 456.49 0.00 -- 48.9 1.0
09/19/2020 09:00 456.49 0.00 -- 40.0 1.0
09/19/2020 08:00 456.49 0.00 -- 35.5 1.0
09/19/2020 07:00 456.49 0.00 -- 36.0 1.0
09/19/2020 06:00 456.49 0.00 -- 35.4 1.0
09/19/2020 05:00 456.50 0.00 -- 36.9 1.0
09/19/2020 04:00 456.49 0.00 -- 39.4 1.3
09/19/2020 03:00 456.50 0.00 -- 40.2 1.8
09/19/2020 02:00 456.50 0.00 -- 42.1 2.0
09/19/2020 01:00 456.50 0.00 -- 45.2 2.0
09/19/2020 00:00 456.50 0.00 -- 49.9 2.0
09/18/2020 23:00 456.50 0.00 -- 51.5 2.0
09/18/2020 22:00 456.51 0.00 -- 52.8 2.0
09/18/2020 21:00 456.51 0.00 -- 54.9 2.0
09/18/2020 20:00 456.51 0.00 -- 57.3 2.0
09/18/2020 19:00 456.51 0.00 -- 62.5 2.0
09/18/2020 18:00 456.52 0.00 -- 67.0 2.0
09/18/2020 17:00 456.51 0.00 -- 68.3 2.0
09/18/2020 16:00 456.51 0.00 -- 69.6 2.0
09/18/2020 15:00 456.51 0.00 -- 69.5 2.0
09/18/2020 14:00 456.51 0.00 -- 66.3 2.0
09/18/2020 13:00 456.51 0.00 -- 63.1 2.0
09/18/2020 12:00 456.50 0.00 -- 61.0 2.0
09/18/2020 11:00 456.50 0.00 -- 55.4 2.0
09/18/2020 10:00 456.51 0.00 -- 53.5 2.0
09/18/2020 09:00 456.51 0.00 -- 52.9 2.0
09/18/2020 08:00 456.51 0.00 -- 53.6 2.0
09/18/2020 07:00 456.51 0.00 -- 53.3 2.0
09/18/2020 06:00 456.51 0.00 -- 55.3 2.0
09/18/2020 05:00 456.51 0.00 -- 55.8 2.0
09/18/2020 04:00 456.51 0.00 -- 56.6 2.0
09/18/2020 03:00 456.51 0.00 -- 57.8 2.0
09/18/2020 02:00 456.51 0.00 -- 58.2 2.0
09/18/2020 01:00 456.51 0.00 -- 58.3 2.0
09/18/2020 00:00 456.51 0.00 0.00 58.6 2.0
09/17/2020 23:00 456.51 0.00 -- 59.1 2.0
09/17/2020 22:00 456.51 0.00 -- 60.1 2.0
09/17/2020 21:00 456.51 0.00 -- 61.8 2.0
09/17/2020 20:00 456.51 0.00 -- 62.2 2.0
09/17/2020 19:00 456.51 0.00 -- 63.5 2.0
09/17/2020 18:00 456.51 0.00 -- 64.3 2.0
09/17/2020 17:00 456.51 0.00 -- 65.1 2.0
09/17/2020 16:00 456.52 0.00 -- 67.1 2.0
09/17/2020 15:00 456.52 0.00 -- 70.4 2.0
09/17/2020 14:00 456.52 0.00 -- 73.7 2.0
09/17/2020 13:00 456.52 0.00 -- 72.5 2.0
09/17/2020 12:00 456.52 0.00 -- 68.6 2.0
09/17/2020 11:00 456.52 0.00 -- 63.4 2.0
09/17/2020 10:00 456.51 0.00 -- 56.5 2.0
09/17/2020 09:00 456.51 0.00 -- 50.9 2.0
09/17/2020 08:00 456.51 0.00 -- 50.1 2.0
09/17/2020 07:00 456.51 0.00 -- 57.0 2.0
09/17/2020 06:00 456.51 0.00 -- 58.3 2.0
09/17/2020 05:00 456.52 0.00 -- 58.2 2.0
09/17/2020 04:00 456.53 0.00 -- 58.9 2.0
09/17/2020 03:00 456.52 0.00 -- 59.6 2.0
09/17/2020 02:00 456.54 0.00 -- 61.8 2.0
09/17/2020 01:00 456.54 0.00 -- 62.6 2.0
09/17/2020 00:00 456.53 0.00 0.00 62.8 2.0
09/16/2020 23:00 456.52 0.00 -- 64.5 2.0
09/16/2020 22:00 456.53 0.00 -- 65.5 2.0
09/16/2020 21:00 456.52 0.00 -- 64.1 2.0
09/16/2020 20:00 456.53 0.00 -- 69.5 2.0
09/16/2020 19:00 456.55 0.00 -- 72.7 2.0
09/16/2020 18:00 456.55 0.00 -- 72.8 2.0
09/16/2020 17:00 456.55 0.00 -- 73.6 2.0
09/16/2020 16:00 456.54 0.00 -- 73.0 2.0
09/16/2020 15:00 456.56 0.00 -- 70.7 2.0
09/16/2020 14:00 456.54 0.00 -- 67.9 2.0
09/16/2020 13:00 456.53 0.00 -- 65.1 2.0
09/16/2020 12:00 456.54 0.00 -- 61.1 2.0
09/16/2020 11:00 456.53 0.00 -- 59.0 2.0
09/16/2020 10:00 456.54 0.00 -- 52.6 2.0
09/16/2020 09:00 456.52 0.00 -- 44.4 2.0
09/16/2020 08:00 456.52 0.00 -- 42.1 2.0
09/16/2020 07:00 456.53 0.00 -- 42.1 2.0
09/16/2020 06:00 456.53 0.00 -- 43.4 2.0
09/16/2020 05:00 456.53 0.00 -- 44.6 2.0
09/16/2020 04:00 456.53 0.00 -- 45.5 2.0
09/16/2020 03:00 456.53 0.00 -- 46.3 2.0
09/16/2020 02:00 456.53 0.00 -- 49.1 2.0
09/16/2020 01:00 456.54 0.00 -- 51.1 2.0
09/16/2020 00:00 456.54 0.00 0.00 50.9 2.0
09/15/2020 23:00 456.54 0.00 -- 53.5 2.0
09/15/2020 22:00 456.54 0.00 -- 53.0 2.0
09/15/2020 21:00 456.54 0.00 -- 56.0 2.0
09/15/2020 20:00 456.54 0.00 -- 60.3 2.0
09/15/2020 19:00 456.55 0.00 -- 63.8 2.0
09/15/2020 18:00 456.55 0.00 -- 64.1 2.0
09/15/2020 17:00 456.55 0.00 -- 64.1 2.0
09/15/2020 16:00 456.55 0.00 -- 64.4 2.0
09/15/2020 15:00 456.55 0.00 -- 65.4 2.0
09/15/2020 14:00 456.54 0.00 -- 64.6 2.0
09/15/2020 13:00 456.54 0.00 -- 59.0 2.0
09/15/2020 12:00 456.54 0.00 -- 59.4 2.0
09/15/2020 11:00 456.54 0.00 -- 55.0 2.0
09/15/2020 10:00 456.54 0.00 -- 49.6 2.0
09/15/2020 09:00 456.54 0.00 -- 41.6 2.0
09/15/2020 08:00 456.54 0.00 -- 40.1 2.0
09/15/2020 07:00 456.54 0.00 -- 40.5 2.0
09/15/2020 06:00 456.54 0.00 -- 42.5 2.0
09/15/2020 05:00 456.54 0.00 -- 43.8 2.0
09/15/2020 04:00 456.54 0.00 -- 44.2 2.0
09/15/2020 03:00 456.55 0.00 -- 46.7 2.0
09/15/2020 02:00 456.55 0.00 -- 48.6 2.0
09/15/2020 01:00 456.55 0.00 -- 50.2 2.0
09/15/2020 00:00 456.56 0.00 0.00 54.5 2.0
09/14/2020 23:00 456.55 0.00 -- 54.4 2.0
09/14/2020 22:00 456.56 0.00 -- 53.9 2.0
09/14/2020 21:00 456.56 0.00 -- 56.1 2.0
09/14/2020 20:00 456.57 0.00 -- 57.6 2.3
09/14/2020 19:00 456.58 0.00 -- 61.0 2.8
09/14/2020 18:00 456.57 0.00 -- 64.0 2.5
09/14/2020 17:00 456.58 0.00 -- 66.8 2.3
09/14/2020 16:00 456.58 0.00 -- 69.4 2.5
09/14/2020 15:00 456.56 0.00 -- 69.8 2.0
09/14/2020 14:00 456.55 0.00 -- 68.7 2.0
09/14/2020 13:00 456.57 0.00 -- 68.8 2.3
09/14/2020 12:00 456.57 0.00 -- 69.0 2.0
09/14/2020 11:00 456.56 0.00 -- 68.0 2.3
09/14/2020 10:00 456.57 0.00 -- 66.7 2.3
09/14/2020 09:00 456.57 0.00 -- 66.2 2.5
09/14/2020 08:00 456.57 0.00 -- 61.9 2.0
09/14/2020 07:00 456.57 0.00 -- 62.7 2.0
09/14/2020 06:00 456.57 0.00 -- 65.2 2.0
09/14/2020 05:00 456.57 0.00 -- 65.9 2.3
09/14/2020 04:00 456.58 0.00 -- 66.5 3.0
09/14/2020 03:00 456.57 0.00 -- 67.1 2.8
09/14/2020 02:00 456.58 0.00 -- 67.9 3.0
09/14/2020 01:00 456.58 0.00 -- 67.7 3.0
09/14/2020 00:00 456.58 0.00 0.00 68.5 3.0
09/13/2020 23:00 456.58 0.00 -- 68.1 2.8
09/13/2020 22:00 456.57 0.00 -- 68.1 2.5
09/13/2020 21:00 456.58 0.00 -- 66.6 3.0
09/13/2020 20:00 456.58 0.00 -- 70.0 2.8
09/13/2020 19:00 456.58 0.00 -- 70.7 3.0
09/13/2020 18:00 456.58 0.00 -- 71.5 3.0
09/13/2020 17:00 456.58 0.00 -- 73.1 3.0
09/13/2020 16:00 456.58 0.00 -- 73.7 3.0
09/13/2020 15:00 456.58 0.00 -- 70.5 3.0
09/13/2020 14:00 456.59 0.00 -- 67.8 3.0
09/13/2020 13:00 456.57 0.00 -- 64.8 2.5
09/13/2020 12:00 456.57 0.00 -- 61.3 2.8
09/13/2020 11:00 456.58 0.00 -- 57.7 2.5
09/13/2020 10:00 456.57 0.00 -- 56.1 2.3
09/13/2020 09:00 456.57 0.00 -- 47.6 2.8
09/13/2020 08:00 456.58 0.00 -- 45.1 3.0
09/13/2020 07:00 456.58 0.00 -- 45.6 3.0
09/13/2020 06:00 456.58 0.00 -- 46.4 3.0
09/13/2020 05:00 456.58 0.00 -- 46.1 3.0
09/13/2020 04:00 456.58 0.00 -- 46.7 3.0
09/13/2020 03:00 456.58 0.00 -- 48.1 3.0
09/13/2020 02:00 456.59 0.00 -- 48.3 3.0
09/13/2020 01:00 456.59 0.00 -- 50.2 3.0
09/13/2020 00:00 456.59 0.00 0.00 51.1 3.0
09/12/2020 23:00 456.59 0.00 -- 53.8 3.0
09/12/2020 22:00 456.60 0.00 -- 58.3 3.0
09/12/2020 21:00 456.60 0.00 -- 61.8 3.0
09/12/2020 20:00 456.60 0.00 -- 65.1 3.0
09/12/2020 19:00 456.61 0.00 -- 71.5 3.0
09/12/2020 18:00 456.60 0.00 -- 74.5 3.0
09/12/2020 17:00 456.60 0.00 -- 72.8 3.0
09/12/2020 16:00 456.60 0.00 -- 73.4 3.0
09/12/2020 15:00 456.60 0.00 -- 70.5 3.0
09/12/2020 14:00 456.60 0.00 -- 68.7 3.0
09/12/2020 13:00 456.60 0.00 -- 67.3 3.0
09/12/2020 12:00 456.59 0.00 -- 65.9 3.0
09/12/2020 11:00 456.59 0.00 -- 62.0 3.0
09/12/2020 10:00 456.59 0.00 -- 53.8 3.0
09/12/2020 09:00 456.59 0.00 -- 48.2 3.0
09/12/2020 08:00 456.60 0.00 -- 44.6 3.0
09/12/2020 07:00 456.60 0.00 -- 45.0 3.0
09/12/2020 06:00 456.60 0.00 -- 44.3 3.0
09/12/2020 05:00 456.60 0.00 -- 45.8 3.0
09/12/2020 04:00 456.60 0.00 -- 46.8 3.0
09/12/2020 03:00 456.61 0.00 -- 47.3 3.0
09/12/2020 02:00 456.61 0.00 -- 49.3 3.0
09/12/2020 01:00 456.61 0.00 -- 50.0 3.0
09/12/2020 00:00 456.61 0.00 0.00 51.6 3.0
09/11/2020 23:00 456.61 0.00 -- 54.6 3.0
09/11/2020 22:00 456.62 0.00 -- 54.8 3.0
09/11/2020 21:00 456.62 0.00 -- 60.5 3.0
09/11/2020 20:00 456.62 0.00 -- 64.5 3.0
09/11/2020 19:00 456.62 0.00 -- 68.2 3.0
09/11/2020 18:00 456.62 0.00 -- 71.9 3.0
09/11/2020 17:00 456.63 0.00 -- 72.4 3.0
09/11/2020 16:00 456.63 0.00 -- 73.2 3.0
09/11/2020 15:00 456.63 0.00 -- 70.6 3.0
09/11/2020 14:00 456.62 0.00 -- 68.8 3.0
09/11/2020 13:00 456.62 0.00 -- 67.0 3.0
09/11/2020 12:00 456.62 0.00 -- 66.3 3.0
09/11/2020 11:00 456.63 0.00 -- 66.9 3.0
09/11/2020 10:00 456.62 0.00 -- 63.9 3.0
09/11/2020 09:00 456.63 0.00 -- 62.6 3.0
09/11/2020 08:00 456.63 0.00 -- 61.6 3.0
09/11/2020 07:00 456.64 0.00 -- 62.6 3.0
09/11/2020 06:00 456.64 0.00 -- 64.8 3.0
09/11/2020 05:00 456.64 0.00 -- 67.1 4.0
09/11/2020 04:00 456.65 0.00 -- 67.3 4.0
09/11/2020 03:00 456.64 0.00 -- 67.4 4.0
09/11/2020 02:00 456.65 0.00 -- 68.7 4.0
09/11/2020 01:00 456.65 0.00 -- 69.9 4.0
09/11/2020 00:00 456.65 0.00 0.00 72.0 4.0
09/10/2020 23:00 456.65 0.00 -- 74.2 4.0
09/10/2020 22:00 456.65 0.00 -- 75.8 4.0
09/10/2020 21:00 456.66 0.00 -- 78.4 4.0
09/10/2020 20:00 456.66 0.00 -- 80.0 4.0
09/10/2020 19:00 456.66 0.00 -- 83.1 4.0
09/10/2020 18:00 456.66 0.00 -- 84.5 4.0
09/10/2020 17:00 456.66 0.00 -- 84.4 4.0
09/10/2020 16:00 456.66 0.00 -- 87.4 4.0
09/10/2020 15:00 456.65 0.00 -- 85.8 4.0
09/10/2020 14:00 456.65 0.00 -- 85.2 4.0
09/10/2020 13:00 456.65 0.00 -- 80.5 4.0
09/10/2020 12:00 456.64 0.00 -- 76.3 3.3
09/10/2020 11:00 456.64 0.00 -- 69.3 3.5
09/10/2020 10:00 456.64 0.00 -- 62.6 4.0
09/10/2020 09:00 456.65 0.00 -- 61.4 4.0
09/10/2020 08:00 456.64 0.00 -- 61.4 4.0
09/10/2020 07:00 456.65 0.00 -- 61.5 4.0
09/10/2020 06:00 456.65 0.00 -- 61.1 4.0
09/10/2020 05:00 456.65 0.00 -- 60.9 4.0
09/10/2020 04:00 456.65 0.00 -- 60.5 4.0
09/10/2020 03:00 456.65 0.00 -- 61.8 4.0
09/10/2020 02:00 456.65 0.00 -- 63.4 4.0
09/10/2020 01:00 456.66 0.00 -- 65.1 4.0
09/10/2020 00:00 456.66 0.00 0.00 67.4 4.0
09/09/2020 23:00 456.66 0.00 -- 69.4 4.0
09/09/2020 22:00 456.66 0.00 -- 71.3 4.0
09/09/2020 21:00 456.66 0.00 -- 75.3 4.0
09/09/2020 20:00 456.66 0.00 -- 79.0 4.0
09/09/2020 19:00 456.67 0.00 -- 82.5 4.0
09/09/2020 18:00 456.67 0.00 -- 85.7 4.0
09/09/2020 17:00 456.66 0.00 -- 88.3 4.0
09/09/2020 16:00 456.67 0.00 -- 89.7 4.0
09/09/2020 15:00 456.67 0.00 -- 86.6 4.0
09/09/2020 14:00 456.66 0.00 -- 86.0 4.0
09/09/2020 13:00 456.65 0.00 -- 80.7 4.0
09/09/2020 12:00 456.65 0.00 -- 75.1 4.0
09/09/2020 11:00 456.65 0.00 -- 71.3 4.0
09/09/2020 10:00 456.66 0.00 -- 66.3 4.0
09/09/2020 09:00 456.65 0.00 -- 63.3 4.0
09/09/2020 08:00 456.66 0.00 -- 61.6 4.0
09/09/2020 07:00 456.66 0.00 -- 61.8 4.0
09/09/2020 06:00 456.66 0.00 -- 62.4 4.0
09/09/2020 05:00 456.66 0.00 -- 63.8 4.0
09/09/2020 04:00 456.66 0.00 -- 64.6 4.0
09/09/2020 03:00 456.66 0.00 -- 66.0 4.0
09/09/2020 02:00 456.67 0.00 -- 65.5 4.0
09/09/2020 01:00 456.67 0.00 -- 66.3 4.0
09/09/2020 00:00 456.67 0.00 0.00 67.3 4.0
09/08/2020 23:00 456.67 0.00 -- 69.6 4.0
09/08/2020 22:00 456.67 0.00 -- 71.0 4.0
09/08/2020 21:00 456.68 0.00 -- 73.3 4.0
09/08/2020 20:00 456.68 0.00 -- 79.0 4.0
09/08/2020 19:00 456.68 0.00 -- 82.3 4.0
09/08/2020 18:00 456.67 0.00 -- 83.4 4.0
09/08/2020 17:00 456.67 0.00 -- 83.7 4.0
09/08/2020 16:00 456.66 0.00 -- 88.2 4.0
09/08/2020 15:00 456.67 0.00 -- 84.4 4.0
09/08/2020 14:00 456.66 0.00 -- 83.4 4.0
09/08/2020 13:00 456.67 0.00 -- 78.0 4.0
09/08/2020 12:00 456.66 0.00 -- 77.1 4.0
09/08/2020 11:00 456.66 0.00 -- 72.2 4.0
09/08/2020 10:00 456.66 0.00 -- 65.2 4.0
09/08/2020 09:00 456.66 0.00 -- 58.7 4.0
09/08/2020 08:00 456.66 0.00 -- 56.6 4.0
09/08/2020 07:00 456.66 0.00 -- 57.7 4.0
09/08/2020 06:00 456.66 0.00 -- 56.8 4.0
09/08/2020 05:00 456.66 0.00 -- 58.5 4.0
09/08/2020 04:00 456.67 0.00 -- 58.5 4.0
09/08/2020 03:00 456.67 0.00 -- 59.2 4.0
09/08/2020 02:00 456.67 0.00 -- 60.0 4.0
09/08/2020 01:00 456.67 0.00 -- 61.8 4.0
09/08/2020 00:00 456.67 0.00 0.00 62.7 4.0
09/07/2020 23:00 456.68 0.00 -- 63.9 4.0
09/07/2020 22:00 456.68 0.00 -- 66.6 4.0
09/07/2020 21:00 456.68 0.00 -- 68.8 4.0
09/07/2020 20:00 456.68 0.00 -- 71.5 4.0
09/07/2020 19:00 456.69 0.00 -- 74.0 4.0
09/07/2020 18:00 456.69 0.00 -- 77.4 4.0
09/07/2020 17:00 456.70 0.00 -- 81.2 4.3
09/07/2020 16:00 456.69 0.00 -- 81.2 4.3
09/07/2020 15:00 456.72 0.00 -- 79.5 4.3
09/07/2020 14:00 456.69 0.00 -- 77.9 4.3
09/07/2020 13:00 456.68 0.00 -- 76.9 4.0
09/07/2020 12:00 456.68 0.00 -- 70.5 4.0
09/07/2020 11:00 456.67 0.00 -- 64.8 4.0
09/07/2020 10:00 456.67 0.00 -- 57.4 4.0
09/07/2020 09:00 456.67 0.00 -- 54.2 4.0
09/07/2020 08:00 456.67 0.00 -- 53.5 4.0
09/07/2020 07:00 456.67 0.00 -- 52.1 4.0
09/07/2020 06:00 456.67 0.00 -- 52.9 4.0
09/07/2020 05:00 456.68 0.00 -- 53.1 4.0
09/07/2020 04:00 456.68 0.00 -- 52.1 4.0
09/07/2020 03:00 456.68 0.00 -- 53.1 4.0
09/07/2020 02:00 456.69 0.00 -- 55.0 4.0
09/07/2020 01:00 456.69 0.00 -- 54.8 4.0
09/07/2020 00:00 456.69 0.00 0.00 55.4 4.0
09/06/2020 23:00 456.69 0.00 -- 58.5 4.0
09/06/2020 22:00 456.69 0.00 -- 59.7 4.0
09/06/2020 21:00 456.70 0.00 -- 62.6 4.0
09/06/2020 20:00 456.70 0.00 -- 67.5 4.0
09/06/2020 19:00 456.70 0.00 -- 73.4 4.3
09/06/2020 18:00 456.71 0.00 -- 77.3 5.0
09/06/2020 17:00 456.71 0.00 -- 77.0 4.3
09/06/2020 16:00 456.71 0.00 -- 78.6 4.8
09/06/2020 15:00 456.70 0.00 -- 77.3 4.3
09/06/2020 14:00 456.71 0.00 -- 76.9 4.5
09/06/2020 13:00 456.69 0.00 -- 75.6 4.0
09/06/2020 12:00 456.70 0.00 -- 73.5 4.0
09/06/2020 11:00 456.69 0.00 -- 69.7 4.0
09/06/2020 10:00 456.69 0.00 -- 60.7 4.0
09/06/2020 09:00 456.69 0.00 -- 53.6 4.0
09/06/2020 08:00 456.69 0.00 -- 50.0 4.0
09/06/2020 07:00 456.70 0.00 -- 51.5 4.0
09/06/2020 06:00 456.70 0.00 -- 53.0 4.0
09/06/2020 05:00 456.70 0.00 -- 51.5 4.0
09/06/2020 04:00 456.70 0.00 -- 53.2 4.0
09/06/2020 03:00 456.70 0.00 -- 54.8 4.0
09/06/2020 02:00 456.70 0.00 -- 55.2 4.5
09/06/2020 01:00 456.71 0.00 -- 58.0 4.8
09/06/2020 00:00 456.71 0.00 0.00 60.0 5.0
09/05/2020 23:00 456.71 0.00 -- 60.4 5.0
09/05/2020 22:00 456.71 0.00 -- 61.2 5.0
09/05/2020 21:00 456.72 0.00 -- 63.4 5.0
09/05/2020 20:00 456.72 0.00 -- 71.2 5.0
09/05/2020 19:00 456.73 0.00 -- 72.1 5.0
09/05/2020 18:00 456.73 0.00 -- 77.3 5.0
09/05/2020 17:00 456.72 0.00 -- 76.6 5.0
09/05/2020 16:00 456.73 0.00 -- 75.9 5.0
09/05/2020 15:00 456.72 0.00 -- 74.9 5.0
09/05/2020 14:00 456.73 0.00 -- 73.5 5.0
09/05/2020 13:00 456.71 0.00 -- 71.9 5.0
09/05/2020 12:00 456.71 0.00 -- 69.4 5.0
09/05/2020 11:00 456.71 0.00 -- 69.0 5.0
09/05/2020 10:00 456.71 0.00 -- 61.8 5.0
09/05/2020 09:00 456.71 0.00 -- 52.9 4.8
09/05/2020 08:00 456.71 0.00 -- 48.9 5.0
09/05/2020 07:00 456.71 0.00 -- 49.7 5.0
09/05/2020 06:00 456.71 0.00 -- 51.0 5.0
09/05/2020 05:00 456.71 0.00 -- 51.3 5.0
09/05/2020 04:00 456.71 0.00 -- 53.0 5.0
09/05/2020 03:00 456.72 0.00 -- 54.5 5.0
09/05/2020 02:00 456.72 0.00 -- 54.6 5.0
09/05/2020 01:00 456.72 0.00 -- 56.6 5.0
09/05/2020 00:00 456.72 0.00 0.00 57.8 5.0
09/04/2020 23:00 456.73 0.00 -- 59.4 5.0
09/04/2020 22:00 456.73 0.00 -- 61.2 5.0
09/04/2020 21:00 456.73 0.00 -- 64.9 5.0
09/04/2020 20:00 456.73 0.00 -- 68.3 5.0
09/04/2020 19:00 456.74 0.00 -- 77.2 5.0
09/04/2020 18:00 456.74 0.00 -- 78.5 5.0
09/04/2020 17:00 456.75 0.00 -- 79.7 5.0
09/04/2020 16:00 456.75 0.00 -- 79.3 5.0
09/04/2020 15:00 456.74 0.00 -- 80.2 5.0
09/04/2020 14:00 456.73 0.00 -- 81.8 5.0
09/04/2020 13:00 456.74 0.00 -- 79.0 5.0
09/04/2020 12:00 456.73 0.00 -- 77.7 5.0
09/04/2020 11:00 456.72 0.00 -- 72.7 5.0
09/04/2020 10:00 456.72 0.00 -- 65.6 5.0
09/04/2020 09:00 456.72 0.00 -- 59.7 5.0
09/04/2020 08:00 456.72 0.00 -- 56.1 5.0
09/04/2020 07:00 456.72 0.00 -- 56.6 5.0
09/04/2020 06:00 456.73 0.00 -- 57.7 5.0
09/04/2020 05:00 456.72 0.00 -- 58.8 5.0
09/04/2020 04:00 456.73 0.00 -- 60.1 5.0
09/04/2020 03:00 456.73 0.00 -- 60.1 5.0
09/04/2020 02:00 456.72 0.00 -- 62.1 5.0
09/04/2020 01:00 456.72 0.00 -- 64.2 5.0
09/04/2020 00:00 456.72 0.00 0.00 66.3 5.0
09/03/2020 23:00 456.73 0.00 -- 67.8 5.0
09/03/2020 22:00 456.73 0.00 -- 69.3 5.0
09/03/2020 21:00 456.73 0.00 -- 72.1 5.0
09/03/2020 20:00 456.73 0.00 -- 73.0 5.0
09/03/2020 19:00 456.73 0.00 -- 75.2 5.0
09/03/2020 18:00 456.73 0.00 -- 77.5 5.0
09/03/2020 17:00 456.72 0.00 -- 79.4 5.0
09/03/2020 16:00 456.73 0.00 -- 80.0 5.0
09/03/2020 15:00 456.72 0.00 -- 81.7 5.0
09/03/2020 14:00 456.72 0.00 -- 78.8 5.0
09/03/2020 13:00 456.72 0.00 -- 77.7 5.0
09/03/2020 12:00 456.71 0.00 -- 74.5 5.0
09/03/2020 11:00 456.71 0.00 -- 69.5 5.0
09/03/2020 10:00 456.71 0.00 -- 65.7 5.0
09/03/2020 09:00 456.71 0.00 -- 64.0 5.0
09/03/2020 08:00 456.71 0.00 -- 63.3 5.0
09/03/2020 07:00 456.71 0.00 -- 64.0 5.0
09/03/2020 06:00 456.71 0.00 -- 64.4 5.0
09/03/2020 05:00 456.71 0.00 -- 64.4 5.0
09/03/2020 04:00 456.71 0.00 -- 64.5 5.0
09/03/2020 03:00 456.71 0.00 -- 65.4 5.0
09/03/2020 02:00 456.71 0.00 -- 64.9 5.0
09/03/2020 01:00 456.71 0.01 -- 64.5 5.0
09/03/2020 00:00 456.71 0.00 0.01 64.5 5.0
09/02/2020 23:00 456.71 0.00 -- 64.5 5.0
09/02/2020 22:00 456.71 0.02 -- 64.5 5.0
09/02/2020 21:00 456.70 0.02 -- 64.6 4.5
09/02/2020 20:00 456.70 0.03 -- 65.3 4.0
09/02/2020 19:00 456.70 0.02 -- 64.7 4.0
09/02/2020 18:00 456.70 0.03 -- 63.8 4.0
09/02/2020 17:00 456.70 0.02 -- 62.5 4.0
09/02/2020 16:00 456.69 0.02 -- 62.3 4.0
09/02/2020 15:00 456.69 0.02 -- 62.3 4.0
09/02/2020 14:00 456.69 0.00 -- 61.4 4.0
09/02/2020 13:00 456.69 0.03 -- 61.5 4.0
09/02/2020 12:00 456.69 0.00 -- 60.9 4.0
09/02/2020 11:00 456.69 0.00 -- 61.6 4.0
09/02/2020 10:00 456.69 0.00 -- 61.3 4.0
09/02/2020 09:00 456.69 0.00 -- 60.1 4.0
09/02/2020 08:00 456.69 0.00 -- 58.5 4.0
09/02/2020 07:00 456.69 0.00 -- 59.0 4.0
09/02/2020 06:00 456.69 0.00 -- 60.1 4.0
09/02/2020 05:00 456.69 0.00 -- 60.6 4.0
09/02/2020 04:00 456.69 0.00 -- 60.3 4.0
09/02/2020 03:00 456.69 0.00 -- 60.7 4.0
09/02/2020 02:00 456.69 0.00 -- 60.6 4.0
09/02/2020 01:00 456.69 0.00 -- 61.7 4.0
09/02/2020 00:00 456.70 0.00 0.21 60.4 4.0
09/01/2020 23:00 456.70 0.00 -- 61.1 4.0
09/01/2020 22:00 456.70 0.00 -- 63.8 4.0
09/01/2020 21:00 456.70 0.00 -- 66.4 4.0
09/01/2020 20:00 456.70 0.00 -- 69.5 4.0
09/01/2020 19:00 456.70 0.00 -- 72.0 4.0
09/01/2020 18:00 456.70 0.00 -- 73.7 4.3
09/01/2020 17:00 456.70 0.00 -- 76.7 4.0
09/01/2020 16:00 456.70 0.00 -- 76.8 4.0
09/01/2020 15:00 456.70 0.00 -- 76.0 4.3
09/01/2020 14:00 456.70 0.00 -- 74.0 4.0
09/01/2020 13:00 456.69 0.00 -- 72.8 4.0
09/01/2020 12:00 456.69 0.00 -- 69.1 4.0
09/01/2020 11:00 456.69 0.00 -- 63.0 4.0
09/01/2020 10:00 456.69 0.00 -- 59.6 4.0
09/01/2020 09:00 456.69 0.00 -- 54.3 4.0
09/01/2020 08:00 456.69 0.00 -- 52.1 4.0
09/01/2020 07:00 456.69 0.00 -- 52.1 4.0
09/01/2020 06:00 456.69 0.00 -- 52.7 4.0
09/01/2020 05:00 456.69 0.00 -- 51.3 4.0
09/01/2020 04:00 456.69 0.00 -- 51.6 4.0
09/01/2020 03:00 456.69 0.00 -- 52.6 4.0
09/01/2020 02:00 456.69 0.00 -- 53.8 4.0
09/01/2020 01:00 456.69 0.00 -- 55.0 4.0
09/01/2020 00:00 456.70 0.00 0.00 56.0 4.0
08/31/2020 23:00 456.70 0.00 -- 58.3 4.0
08/31/2020 22:00 456.70 0.00 -- 59.9 4.0
08/31/2020 21:00 456.70 0.00 -- 62.8 4.0
08/31/2020 20:00 456.70 0.00 -- 70.8 4.5
08/31/2020 19:00 456.70 0.00 -- 74.7 4.0
08/31/2020 18:00 456.71 0.00 -- 75.0 4.3
08/31/2020 17:00 456.70 0.00 -- 73.8 4.0
08/31/2020 16:00 456.69 0.00 -- 71.6 4.0
08/31/2020 15:00 456.69 0.00 -- 74.7 4.0
08/31/2020 14:00 456.69 0.00 -- 75.3 4.0
08/31/2020 13:00 456.69 0.00 -- 69.1 4.0
08/31/2020 12:00 456.69 0.00 -- 69.2 4.0
08/31/2020 11:00 456.69 0.00 -- 69.7 4.0
08/31/2020 10:00 456.68 0.00 -- 59.5 4.0
08/31/2020 09:00 456.68 0.00 -- 53.9 4.0
08/31/2020 08:00 456.68 0.00 -- 49.8 4.0
08/31/2020 07:00 456.68 0.00 -- 50.2 4.0
08/31/2020 06:00 456.68 0.00 -- 51.6 4.0
08/31/2020 05:00 456.68 0.00 -- 52.0 4.0
08/31/2020 04:00 456.68 0.00 -- 53.1 4.0
08/31/2020 03:00 456.68 0.00 -- 54.1 4.0
08/31/2020 02:00 456.68 0.00 -- 56.7 4.0
08/31/2020 01:00 456.68 0.00 -- 60.0 4.0
08/31/2020 00:00 456.68 0.00 0.00 61.4 --
08/30/2020 23:00 456.68 0.00 -- 61.8 --
08/30/2020 22:00 456.68 0.00 -- 62.1 --
08/30/2020 21:00 456.68 0.00 -- 62.5 --
08/30/2020 20:00 456.68 0.00 -- 62.8 --
08/30/2020 19:00 456.68 0.00 -- 63.1 --
08/30/2020 18:00 456.68 0.00 -- 63.5 --
08/30/2020 17:00 456.68 0.00 -- 63.8 --
08/30/2020 16:00 456.68 0.00 -- 64.2 --
08/30/2020 15:00 456.68 0.00 -- 64.5 4.0
08/30/2020 14:00 456.69 0.00 -- 65.3 4.0
08/30/2020 13:00 456.68 0.00 -- 65.5 4.0
08/30/2020 12:00 456.67 0.00 -- 64.9 4.0
08/30/2020 11:00 456.68 0.00 -- 64.2 4.0
08/30/2020 10:00 456.67 0.00 -- 63.0 4.0
08/30/2020 09:00 456.67 0.00 -- 63.0 4.0
08/30/2020 08:00 456.67 0.00 -- 60.9 4.0
08/30/2020 07:00 456.68 0.00 -- 59.7 4.0
08/30/2020 06:00 456.67 0.00 -- 57.6 4.0
08/30/2020 05:00 456.68 0.00 -- 58.5 4.0
08/30/2020 04:00 456.66 0.00 -- 59.9 4.0
08/30/2020 03:00 456.66 0.00 -- 60.2 4.0
08/30/2020 02:00 456.66 0.00 -- 60.5 4.0
08/30/2020 01:00 456.66 0.00 -- 60.3 4.0
08/30/2020 00:00 456.66 0.01 0.00 60.5 4.0
08/29/2020 23:00 456.66 0.00 -- 60.7 4.0
08/29/2020 22:00 456.66 0.00 -- 60.9 4.0
08/29/2020 21:00 456.66 0.00 -- 61.3 4.0
08/29/2020 20:00 456.66 0.00 -- 62.3 4.0
08/29/2020 19:00 456.66 0.00 -- 62.6 4.0
08/29/2020 18:00 456.66 0.00 -- 62.5 4.0
08/29/2020 17:00 456.66 0.00 -- 61.3 4.0
08/29/2020 16:00 456.66 0.00 -- 60.0 4.0
08/29/2020 15:00 456.66 0.01 -- 58.9 4.0
08/29/2020 14:00 456.65 0.03 -- 58.3 4.0
08/29/2020 13:00 456.65 0.05 -- 57.6 4.0
08/29/2020 12:00 456.65 0.11 -- 57.2 3.5
08/29/2020 11:00 456.63 0.23 -- 56.6 3.0
08/29/2020 10:00 456.62 0.20 -- 56.8 3.0
08/29/2020 09:00 456.60 0.00 -- 56.7 3.0
08/29/2020 08:00 456.60 0.00 -- 57.7 3.0
08/29/2020 07:00 456.60 0.00 -- 57.6 3.0
08/29/2020 06:00 456.60 0.00 -- 56.4 3.0
08/29/2020 05:00 456.60 0.00 -- 56.3 3.0
08/29/2020 04:00 456.60 0.00 -- 55.5 3.0
08/29/2020 03:00 456.60 0.00 -- 56.9 3.0
08/29/2020 02:00 456.60 0.00 -- 56.6 3.0
08/29/2020 01:00 456.61 0.00 -- 58.3 3.0
08/29/2020 00:00 456.61 0.00 0.64 59.1 3.0
08/28/2020 23:00 456.61 0.00 -- 61.4 3.0
08/28/2020 22:00 456.61 0.00 -- 64.0 3.0
08/28/2020 21:00 456.61 0.00 -- 66.2 3.0
08/28/2020 20:00 456.62 0.00 -- 72.1 3.0
08/28/2020 19:00 456.62 0.00 -- 77.1 3.0
08/28/2020 18:00 456.62 0.00 -- 76.7 3.0
08/28/2020 17:00 456.62 0.00 -- 79.4 3.0
08/28/2020 16:00 456.61 0.00 -- 78.0 3.0
08/28/2020 15:00 456.62 0.00 -- 73.5 3.0
08/28/2020 14:00 456.62 0.00 -- 73.2 3.0
08/28/2020 13:00 456.61 0.00 -- 73.8 3.0
08/28/2020 12:00 456.61 0.00 -- 72.3 3.0
08/28/2020 11:00 456.61 0.00 -- 69.0 3.0
08/28/2020 10:00 456.61 0.00 -- 61.8 3.0
08/28/2020 09:00 456.61 0.00 -- 55.1 3.0
08/28/2020 08:00 456.61 0.00 -- 49.9 3.0
08/28/2020 07:00 456.61 0.00 -- 50.9 3.0
08/28/2020 06:00 456.61 0.00 -- 52.8 3.0
08/28/2020 05:00 456.61 0.00 -- 54.5 3.0
08/28/2020 04:00 456.61 0.00 -- 53.3 3.0
08/28/2020 03:00 456.61 0.00 -- 51.8 3.0
08/28/2020 02:00 456.61 0.00 -- 53.7 3.0
08/28/2020 01:00 456.62 0.00 -- 56.0 3.0
08/28/2020 00:00 456.62 0.00 0.00 57.9 3.0
08/27/2020 23:00 456.62 0.00 -- 59.9 3.0
08/27/2020 22:00 456.62 0.00 -- 63.8 3.0
08/27/2020 21:00 456.62 0.00 -- 64.2 3.0
08/27/2020 20:00 456.62 0.00 -- 68.6 3.0
08/27/2020 19:00 456.63 0.00 -- 69.2 3.0
08/27/2020 18:00 456.62 0.00 -- 70.9 3.0
08/27/2020 17:00 456.62 0.00 -- 71.7 3.0
08/27/2020 16:00 456.62 0.00 -- 68.7 3.0
08/27/2020 15:00 456.62 0.00 -- 64.5 3.0
08/27/2020 14:00 456.62 0.00 -- 62.7 3.0
08/27/2020 13:00 456.63 0.00 -- 63.0 3.0
08/27/2020 12:00 456.62 0.00 -- 61.8 3.0
08/27/2020 11:00 456.63 0.00 -- 58.6 3.0
08/27/2020 10:00 456.62 0.00 -- 55.3 3.0
08/27/2020 09:00 456.63 0.00 -- 56.4 3.0
08/27/2020 08:00 456.63 0.00 -- 54.5 3.0
08/27/2020 07:00 456.62 0.00 -- 54.6 3.0
08/27/2020 06:00 456.64 0.00 -- 56.8 3.0
08/27/2020 05:00 456.64 0.00 -- 57.4 3.3
08/27/2020 04:00 456.63 0.00 -- 57.9 3.3
08/27/2020 03:00 456.63 0.00 -- 58.2 3.0
08/27/2020 02:00 456.64 0.00 -- 59.2 3.3
08/27/2020 01:00 456.65 0.00 -- 60.0 3.5
08/27/2020 00:00 456.64 0.00 0.00 60.6 3.0
08/26/2020 23:00 456.64 0.00 -- 59.4 3.3
08/26/2020 22:00 456.64 0.00 -- 60.2 3.5
08/26/2020 21:00 456.64 0.00 -- 62.0 3.8
08/26/2020 20:00 456.64 0.00 -- 65.0 3.8
08/26/2020 19:00 456.66 0.00 -- 69.1 4.0
08/26/2020 18:00 456.66 0.00 -- 71.6 4.0
08/26/2020 17:00 456.65 0.00 -- 73.0 4.0
08/26/2020 16:00 456.65 0.00 -- 71.0 4.0
08/26/2020 15:00 456.67 0.00 -- 69.5 4.0
08/26/2020 14:00 456.68 0.00 -- 68.4 4.0
08/26/2020 13:00 456.67 0.00 -- 67.1 4.0
08/26/2020 12:00 456.67 0.00 -- 65.2 4.0
08/26/2020 11:00 456.65 0.00 -- 62.1 4.0
08/26/2020 10:00 456.67 0.00 -- 60.5 4.0
08/26/2020 09:00 456.68 0.00 -- 60.3 4.0
08/26/2020 08:00 456.66 0.00 -- 58.6 4.0
08/26/2020 07:00 456.65 0.00 -- 59.6 4.0
08/26/2020 06:00 456.67 0.00 -- 60.8 4.0
08/26/2020 05:00 456.68 0.00 -- 61.8 4.0
08/26/2020 04:00 456.67 0.00 -- 63.0 4.0
08/26/2020 03:00 456.68 0.00 -- 63.5 4.0
08/26/2020 02:00 456.68 0.00 -- 64.3 4.0
08/26/2020 01:00 456.68 0.00 -- 65.1 4.0
08/26/2020 00:00 456.68 0.00 0.00 67.2 4.0
08/25/2020 23:00 456.67 0.00 -- 69.0 4.0
08/25/2020 22:00 456.68 0.00 -- 70.2 4.0
08/25/2020 21:00 456.68 0.00 -- 72.1 4.0
08/25/2020 20:00 456.69 0.00 -- 75.7 4.3
08/25/2020 19:00 456.69 0.00 -- 80.1 4.0
08/25/2020 18:00 456.69 0.00 -- 80.2 4.0
08/25/2020 17:00 456.70 0.00 -- 77.3 4.3
08/25/2020 16:00 456.70 0.00 -- 83.8 4.0
08/25/2020 15:00 456.68 0.00 -- 86.2 4.3
08/25/2020 14:00 456.70 0.00 -- 86.3 4.3
08/25/2020 13:00 456.69 0.00 -- 82.2 4.0
08/25/2020 12:00 456.69 0.00 -- 78.1 4.0
08/25/2020 11:00 456.69 0.00 -- 75.5 4.0
08/25/2020 10:00 456.68 0.00 -- 67.8 4.0
08/25/2020 09:00 456.68 0.00 -- 64.8 4.0
08/25/2020 08:00 456.68 0.00 -- 64.2 4.0
08/25/2020 07:00 456.68 0.00 -- 64.4 4.0
08/25/2020 06:00 456.68 0.00 -- 64.5 4.0
08/25/2020 05:00 456.69 0.01 -- 65.3 4.0
08/25/2020 04:00 456.69 0.00 -- 66.0 4.0
08/25/2020 03:00 456.69 0.00 -- 67.1 4.0
08/25/2020 02:00 456.69 0.00 -- 67.7 4.0
08/25/2020 01:00 456.69 0.00 -- 68.6 4.0
08/25/2020 00:00 456.69 0.00 0.01 68.8 4.0
08/24/2020 23:00 456.69 0.00 -- 69.3 4.0
08/24/2020 22:00 456.68 0.00 -- 69.6 4.0
08/24/2020 21:00 456.68 0.00 -- 71.0 4.0
08/24/2020 20:00 456.68 0.02 -- 71.3 4.0
08/24/2020 19:00 456.68 0.10 -- 74.1 4.0
08/24/2020 18:00 456.67 0.00 -- 82.3 4.0
08/24/2020 17:00 456.68 0.00 -- 87.4 4.0
08/24/2020 16:00 456.68 0.00 -- 89.2 4.0
08/24/2020 15:00 456.68 0.00 -- 89.2 4.0
08/24/2020 14:00 456.67 0.00 -- 85.9 4.0
08/24/2020 13:00 456.67 0.00 -- 82.8 4.0
08/24/2020 12:00 456.67 0.00 -- 79.1 4.0
08/24/2020 11:00 456.67 0.00 -- 77.1 4.0
08/24/2020 10:00 456.66 0.00 -- 69.9 4.0
08/24/2020 09:00 456.66 0.00 -- 66.3 4.0
08/24/2020 08:00 456.66 0.00 -- 63.3 4.0
08/24/2020 07:00 456.66 0.00 -- 63.6 4.0
08/24/2020 06:00 456.66 0.00 -- 63.8 4.0
08/24/2020 05:00 456.67 0.00 -- 64.9 4.0
08/24/2020 04:00 456.67 0.00 -- 65.5 4.0
08/24/2020 03:00 456.67 0.00 -- 66.4 4.0
08/24/2020 02:00 456.67 0.00 -- 66.9 4.0
08/24/2020 01:00 456.67 0.00 -- 67.6 4.0
08/24/2020 00:00 456.67 0.00 0.12 68.0 4.0
08/23/2020 23:00 456.67 0.00 -- 69.3 4.0
08/23/2020 22:00 456.66 0.00 -- 72.1 4.0
08/23/2020 21:00 456.66 0.00 -- 75.4 4.0
08/23/2020 20:00 456.66 0.00 -- 77.6 4.0
08/23/2020 19:00 456.66 0.00 -- 80.8 4.0
08/23/2020 18:00 456.66 0.00 -- 82.3 4.0
08/23/2020 17:00 456.66 0.00 -- 83.0 4.0
08/23/2020 16:00 456.66 0.00 -- 80.5 4.0
08/23/2020 15:00 456.65 0.00 -- 75.1 4.0
08/23/2020 14:00 456.65 0.00 -- 72.6 4.0
08/23/2020 13:00 456.65 0.00 -- 73.2 4.0
08/23/2020 12:00 456.65 0.00 -- 71.1 4.0
08/23/2020 11:00 456.65 0.00 -- 66.5 4.0
08/23/2020 10:00 456.65 0.00 -- 67.2 4.0
08/23/2020 09:00 456.65 0.00 -- 59.9 4.0
08/23/2020 08:00 456.65 0.00 -- 56.9 4.0
08/23/2020 07:00 456.65 0.00 -- 57.5 4.0
08/23/2020 06:00 456.65 0.00 -- 58.0 4.0
08/23/2020 05:00 456.65 0.00 -- 58.7 4.0
08/23/2020 04:00 456.65 0.00 -- 59.4 4.0
08/23/2020 03:00 456.65 0.00 -- 60.8 4.0
08/23/2020 02:00 456.65 0.00 -- 62.5 4.0
08/23/2020 01:00 456.65 0.00 -- 64.1 4.0
08/23/2020 00:00 456.65 0.00 0.00 64.6 4.0
08/22/2020 23:00 456.65 0.00 -- 66.1 4.0
08/22/2020 22:00 456.65 0.00 -- 67.8 4.0
08/22/2020 21:00 456.65 0.00 -- 71.0 4.0
08/22/2020 20:00 456.65 0.00 -- 74.5 4.0
08/22/2020 19:00 456.65 0.00 -- 73.9 4.0
08/22/2020 18:00 456.65 0.00 -- 76.8 4.0
08/22/2020 17:00 456.65 0.00 -- 79.0 4.0
08/22/2020 16:00 456.65 0.01 -- 75.6 4.0
08/22/2020 15:00 456.64 0.20 -- 68.8 3.0
08/22/2020 14:00 456.62 0.00 -- 75.5 3.0
08/22/2020 13:00 456.62 0.00 -- 76.4 3.0
08/22/2020 12:00 456.62 0.00 -- 77.1 3.0
08/22/2020 11:00 456.62 0.00 -- 72.4 3.0
08/22/2020 10:00 456.62 0.00 -- 66.6 3.0
08/22/2020 09:00 456.62 0.00 -- 62.9 3.0
08/22/2020 08:00 456.62 0.00 -- 61.0 3.0
08/22/2020 07:00 456.62 0.00 -- 60.7 3.0
08/22/2020 06:00 456.62 0.00 -- 61.8 3.0
08/22/2020 05:00 456.62 0.00 -- 61.5 3.0
08/22/2020 04:00 456.62 0.00 -- 62.2 3.0
08/22/2020 03:00 456.63 0.00 -- 61.5 3.0
08/22/2020 02:00 456.63 0.00 -- 62.5 3.0
08/22/2020 01:00 456.63 0.00 -- 64.2 3.0
08/22/2020 00:00 456.63 0.00 0.21 65.1 3.0
08/21/2020 23:00 456.63 0.00 -- 67.8 3.0
08/21/2020 22:00 456.64 0.00 -- 73.7 3.0
08/21/2020 21:00 456.64 0.00 -- 71.8 3.0
08/21/2020 20:00 456.64 0.00 -- 74.2 3.5
08/21/2020 19:00 456.64 0.00 -- 72.1 3.0
08/21/2020 18:00 456.64 0.00 -- 74.1 3.0
08/21/2020 17:00 456.64 0.00 -- 79.3 3.0
08/21/2020 16:00 456.64 0.00 -- 81.5 3.3
08/21/2020 15:00 456.64 0.00 -- 82.6 3.5
08/21/2020 14:00 456.65 0.00 -- 82.1 4.0
08/21/2020 13:00 456.64 0.00 -- 82.1 3.8
08/21/2020 12:00 456.64 0.00 -- 78.2 3.3
08/21/2020 11:00 456.64 0.00 -- 74.2 3.3
08/21/2020 10:00 456.63 0.00 -- 65.2 3.0
08/21/2020 09:00 456.63 0.00 -- 61.4 3.0
08/21/2020 08:00 456.63 0.00 -- 57.1 3.0
08/21/2020 07:00 456.63 0.00 -- 56.4 3.0
08/21/2020 06:00 456.63 0.00 -- 55.7 3.0
08/21/2020 05:00 456.63 0.00 -- 56.3 3.0
08/21/2020 04:00 456.63 0.00 -- 56.4 3.0
08/21/2020 03:00 456.63 0.00 -- 56.3 3.0
08/21/2020 02:00 456.64 0.00 -- 58.1 3.0
08/21/2020 01:00 456.64 0.00 -- 59.5 3.5
08/21/2020 00:00 456.64 0.00 0.00 60.1 3.8
08/20/2020 23:00 456.65 0.00 -- 61.3 4.0
08/20/2020 22:00 456.65 0.00 -- 62.6 4.0
08/20/2020 21:00 456.65 0.00 -- 66.8 4.0
08/20/2020 20:00 456.66 0.00 -- 73.0 4.0
08/20/2020 19:00 456.66 0.00 -- 75.8 4.0
08/20/2020 18:00 456.66 0.00 -- 77.3 4.0
08/20/2020 17:00 456.66 0.00 -- 76.7 4.0
08/20/2020 16:00 456.66 0.00 -- 78.5 4.0
08/20/2020 15:00 456.65 0.00 -- 75.5 4.0
08/20/2020 14:00 456.66 0.00 -- 74.7 4.0
08/20/2020 13:00 456.66 0.00 -- 72.5 4.0
08/20/2020 12:00 456.65 0.00 -- 71.7 3.8
08/20/2020 11:00 456.66 0.00 -- 70.0 4.0
08/20/2020 10:00 456.65 0.00 -- 66.1 4.0
08/20/2020 09:00 456.65 0.00 -- 60.5 4.0
08/20/2020 08:00 456.65 0.00 -- 54.8 4.0
08/20/2020 07:00 456.65 0.00 -- 53.5 4.0
08/20/2020 06:00 456.65 0.00 -- 53.4 4.0
08/20/2020 05:00 456.65 0.00 -- 53.1 4.0
08/20/2020 04:00 456.65 0.00 -- 54.7 4.0
08/20/2020 03:00 456.65 0.00 -- 56.3 4.0
08/20/2020 02:00 456.66 0.00 -- 59.1 4.0
08/20/2020 01:00 456.66 0.00 -- 62.5 4.0
08/20/2020 00:00 456.66 0.00 0.00 58.5 4.0
08/19/2020 23:00 456.66 0.00 -- 60.4 4.0
08/19/2020 22:00 456.66 0.00 -- 62.0 4.0
08/19/2020 21:00 456.67 0.00 -- 65.4 4.0
08/19/2020 20:00 456.67 0.00 -- 70.0 4.0
08/19/2020 19:00 456.67 0.00 -- 72.5 4.0
08/19/2020 18:00 456.67 0.00 -- 72.0 4.0
08/19/2020 17:00 456.67 0.00 -- 74.6 4.0
08/19/2020 16:00 456.67 0.02 -- 72.1 4.0
08/19/2020 15:00 456.66 0.00 -- 75.8 4.0
08/19/2020 14:00 456.66 0.00 -- 74.0 4.0
08/19/2020 13:00 456.66 0.00 -- 73.7 4.0
08/19/2020 12:00 456.66 0.00 -- 72.7 4.0
08/19/2020 11:00 456.66 0.00 -- 73.0 4.0
08/19/2020 10:00 456.66 0.00 -- 65.5 4.0
08/19/2020 09:00 456.66 0.00 -- 60.5 4.0
08/19/2020 08:00 456.66 0.00 -- 56.2 4.0
08/19/2020 07:00 456.66 0.00 -- 57.1 4.0
08/19/2020 06:00 456.67 0.00 -- 56.8 4.0
08/19/2020 05:00 456.67 0.00 -- 55.9 4.0
08/19/2020 04:00 456.67 0.00 -- 58.5 4.0
08/19/2020 03:00 456.67 0.00 -- 60.5 4.0
08/19/2020 02:00 456.67 0.00 -- 60.3 4.0
08/19/2020 01:00 456.67 0.00 -- 62.8 4.0
08/19/2020 00:00 456.67 0.00 0.02 63.2 4.0
08/18/2020 23:00 456.68 0.00 -- 64.2 4.0
08/18/2020 22:00 456.68 0.00 -- 65.0 4.0
08/18/2020 21:00 456.68 0.00 -- 68.1 4.0
08/18/2020 20:00 456.69 0.00 -- 73.4 4.0
08/18/2020 19:00 456.69 0.00 -- 76.6 4.0
08/18/2020 18:00 456.70 0.00 -- 81.9 4.0
08/18/2020 17:00 456.69 0.00 -- 83.3 4.0
08/18/2020 16:00 456.69 0.00 -- 79.3 4.0
08/18/2020 15:00 456.69 0.00 -- 80.2 4.0
08/18/2020 14:00 456.70 0.00 -- 80.9 4.0
08/18/2020 13:00 456.69 0.00 -- 76.5 4.0
08/18/2020 12:00 456.69 0.00 -- 75.9 4.0
08/18/2020 11:00 456.68 0.00 -- 71.2 4.0
08/18/2020 10:00 456.68 0.00 -- 68.5 4.0
08/18/2020 09:00 456.68 0.00 -- 64.1 4.0
08/18/2020 08:00 456.68 0.00 -- 63.2 4.0
08/18/2020 07:00 456.68 0.00 -- 63.0 4.0
08/18/2020 06:00 456.68 0.00 -- 62.8 4.0
08/18/2020 05:00 456.68 0.00 -- 63.9 4.0
08/18/2020 04:00 456.68 0.00 -- 64.0 4.0
08/18/2020 03:00 456.69 0.00 -- 64.0 4.0
08/18/2020 02:00 456.69 0.00 -- 65.0 4.0
08/18/2020 01:00 456.69 0.00 -- 64.3 4.0
08/18/2020 00:00 456.69 0.00 0.00 66.0 4.0
08/17/2020 23:00 456.69 0.00 -- 67.1 4.0
08/17/2020 22:00 456.70 0.00 -- 68.1 4.0
08/17/2020 21:00 456.69 0.00 -- 73.6 4.0
08/17/2020 20:00 456.69 0.00 -- 75.5 4.0
08/17/2020 19:00 456.69 0.00 -- 78.2 4.0
08/17/2020 18:00 456.69 0.00 -- 82.5 4.0
08/17/2020 17:00 456.69 0.00 -- 80.9 4.0
08/17/2020 16:00 456.69 0.00 -- 80.1 4.0
08/17/2020 15:00 456.69 0.00 -- 79.0 4.0
08/17/2020 14:00 456.69 0.00 -- 76.0 4.0
08/17/2020 13:00 456.69 0.00 -- 74.0 4.0
08/17/2020 12:00 456.69 0.00 -- 74.3 4.0
08/17/2020 11:00 456.69 0.00 -- 71.4 4.0
08/17/2020 10:00 456.68 0.00 -- 66.3 4.0
08/17/2020 09:00 456.69 0.00 -- 62.1 4.0
08/17/2020 08:00 456.69 0.00 -- 59.0 4.0
08/17/2020 07:00 456.69 0.00 -- 59.7 4.0
08/17/2020 06:00 456.69 0.00 -- 59.9 4.0
08/17/2020 05:00 456.69 0.00 -- 60.7 4.0
08/17/2020 04:00 456.69 0.00 -- 62.7 4.0
08/17/2020 03:00 456.69 0.00 -- 62.8 4.0
08/17/2020 02:00 456.70 0.00 -- 63.5 4.0
08/17/2020 01:00 456.70 0.00 -- 64.5 4.0
08/17/2020 00:00 456.70 0.00 0.00 64.1 4.0
08/16/2020 23:00 456.70 0.00 -- 65.3 4.0
08/16/2020 22:00 456.70 0.00 -- 67.2 4.0
08/16/2020 21:00 456.70 0.00 -- 68.6 4.3
08/16/2020 20:00 456.71 0.00 -- 70.6 4.8
08/16/2020 19:00 456.71 0.00 -- 73.1 4.8
08/16/2020 18:00 456.71 0.00 -- 74.6 5.0
08/16/2020 17:00 456.71 0.00 -- 74.3 4.8
08/16/2020 16:00 456.71 0.00 -- 73.7 4.8
08/16/2020 15:00 456.71 0.00 -- 73.5 4.5
08/16/2020 14:00 456.71 0.00 -- 72.7 4.5
08/16/2020 13:00 456.70 0.00 -- 72.7 4.3
08/16/2020 12:00 456.70 0.00 -- 70.2 4.5
08/16/2020 11:00 456.71 0.00 -- 68.3 4.8
08/16/2020 10:00 456.71 0.00 -- 62.7 4.8
08/16/2020 09:00 456.70 0.00 -- 60.7 4.8
08/16/2020 08:00 456.71 0.00 -- 58.1 5.0
08/16/2020 07:00 456.71 0.00 -- 56.0 5.0
08/16/2020 06:00 456.71 0.00 -- 58.1 5.0
08/16/2020 05:00 456.71 0.00 -- 57.7 5.0
08/16/2020 04:00 456.71 0.00 -- 58.9 5.0
08/16/2020 03:00 456.71 0.00 -- 58.9 5.0
08/16/2020 02:00 456.71 0.00 -- 60.4 5.0
08/16/2020 01:00 456.72 0.00 -- 61.6 5.0
08/16/2020 00:00 456.72 0.00 0.00 62.0 5.0
08/15/2020 23:00 456.72 0.00 -- 63.3 5.0
08/15/2020 22:00 456.72 0.00 -- 65.2 5.0
08/15/2020 21:00 456.73 0.00 -- 68.4 5.0
08/15/2020 20:00 456.73 0.00 -- 71.8 5.0
08/15/2020 19:00 456.73 0.00 -- 73.6 5.0
08/15/2020 18:00 456.73 0.00 -- 73.0 5.0
08/15/2020 17:00 456.73 0.00 -- 74.3 5.0
08/15/2020 16:00 456.72 0.00 -- 71.9 5.0
08/15/2020 15:00 456.73 0.00 -- 71.9 5.0
08/15/2020 14:00 456.73 0.00 -- 71.1 5.0
08/15/2020 13:00 456.73 0.00 -- 69.6 5.0
08/15/2020 12:00 456.73 0.00 -- 70.0 5.0
08/15/2020 11:00 456.73 0.00 -- 67.7 5.0
08/15/2020 10:00 456.73 0.00 -- 67.0 5.0
08/15/2020 09:00 456.73 0.00 -- 64.2 5.0
08/15/2020 08:00 456.73 0.00 -- 62.5 5.0
08/15/2020 07:00 456.74 0.00 -- 60.8 5.0
08/15/2020 06:00 456.74 0.00 -- 58.7 5.0
08/15/2020 05:00 456.74 0.00 -- 61.2 5.0
08/15/2020 04:00 456.74 0.00 -- 63.3 5.0
08/15/2020 03:00 456.75 0.00 -- 64.9 5.0
08/15/2020 02:00 456.75 0.00 -- 64.3 5.0
08/15/2020 01:00 456.75 0.00 -- 64.5 5.0
08/15/2020 00:00 456.76 0.00 0.00 67.0 5.0
08/14/2020 23:00 456.76 0.00 -- 69.8 5.0
08/14/2020 22:00 456.76 0.00 -- 72.4 5.3
08/14/2020 21:00 456.76 0.00 -- 74.8 5.0
08/14/2020 20:00 456.76 0.00 -- 78.0 5.8
08/14/2020 19:00 456.76 0.00 -- 82.7 5.0
08/14/2020 18:00 456.76 0.00 -- 86.5 5.3
08/14/2020 17:00 456.76 0.00 -- 87.7 5.0
08/14/2020 16:00 456.76 0.00 -- 87.3 5.0
08/14/2020 15:00 456.76 0.00 -- 84.6 5.3
08/14/2020 14:00 456.76 0.00 -- 82.9 5.8
08/14/2020 13:00 456.76 0.00 -- 82.2 5.0
08/14/2020 12:00 456.76 0.00 -- 81.4 5.5
08/14/2020 11:00 456.76 0.00 -- 79.7 5.3
08/14/2020 10:00 456.76 0.00 -- 71.6 5.0
08/14/2020 09:00 456.76 0.00 -- 66.8 5.0
08/14/2020 08:00 456.76 0.00 -- 63.0 6.0
08/14/2020 07:00 456.77 0.00 -- 63.5 6.0
08/14/2020 06:00 456.77 0.00 -- 64.6 6.0
08/14/2020 05:00 456.77 0.00 -- 65.0 6.0
08/14/2020 04:00 456.77 0.00 -- 65.0 6.0
08/14/2020 03:00 456.78 0.00 -- 67.5 6.0
08/14/2020 02:00 456.78 0.00 -- 67.4 6.0
08/14/2020 01:00 456.78 0.00 -- 68.3 6.0
08/14/2020 00:00 456.79 0.00 0.00 71.5 6.0
08/13/2020 23:00 456.79 0.00 -- 74.0 6.0
08/13/2020 22:00 456.79 0.00 -- 74.4 6.0
08/13/2020 21:00 456.79 0.00 -- 75.9 6.0
08/13/2020 20:00 456.80 0.00 -- 80.4 6.0
08/13/2020 19:00 456.79 0.00 -- 81.5 6.0
08/13/2020 18:00 456.80 0.00 -- 84.2 6.0
08/13/2020 17:00 456.79 0.00 -- 89.8 6.0
08/13/2020 16:00 456.79 0.00 -- 86.1 6.0
08/13/2020 15:00 456.80 0.00 -- 86.1 6.0
08/13/2020 14:00 456.80 0.00 -- 86.8 6.0
08/13/2020 13:00 456.80 0.00 -- 84.9 6.0
08/13/2020 12:00 456.80 0.00 -- 86.0 6.0
08/13/2020 11:00 456.80 0.00 -- 79.2 6.0
08/13/2020 10:00 456.80 0.00 -- 73.2 6.0
08/13/2020 09:00 456.79 0.00 -- 68.8 6.0
08/13/2020 08:00 456.80 0.00 -- 62.7 6.0
08/13/2020 07:00 456.80 0.00 -- 62.0 6.0
08/13/2020 06:00 456.80 0.00 -- 62.8 6.0
08/13/2020 05:00 456.81 0.00 -- 64.9 6.0
08/13/2020 04:00 456.81 0.00 -- 66.0 6.0
08/13/2020 03:00 456.81 0.00 -- 64.8 6.0
08/13/2020 02:00 456.81 0.00 -- 66.6 6.0
08/13/2020 01:00 456.82 0.00 -- 68.5 7.0
08/13/2020 00:00 456.82 0.00 0.00 71.5 7.0
08/12/2020 23:00 456.83 0.00 -- 73.8 7.0
08/12/2020 22:00 456.83 0.00 -- 77.9 7.0
08/12/2020 21:00 456.83 0.00 -- 80.7 7.0
08/12/2020 20:00 456.83 0.00 -- 83.0 7.0
08/12/2020 19:00 456.83 0.00 -- 88.5 7.0
08/12/2020 18:00 456.83 0.00 -- 89.1 7.0
08/12/2020 17:00 456.84 0.00 -- 88.8 7.0
08/12/2020 16:00 456.84 0.00 -- 88.3 7.0
08/12/2020 15:00 456.83 0.00 -- 87.2 7.0
08/12/2020 14:00 456.84 0.00 -- 87.3 7.0
08/12/2020 13:00 456.84 0.00 -- 86.7 7.0
08/12/2020 12:00 456.83 0.00 -- 85.0 7.0
08/12/2020 11:00 456.84 0.00 -- 82.8 7.0
08/12/2020 10:00 456.83 0.00 -- 80.4 7.0
08/12/2020 09:00 456.83 0.00 -- 79.6 7.0
08/12/2020 08:00 456.84 0.00 -- 74.4 7.0
08/12/2020 07:00 456.84 0.00 -- 74.6 7.0
08/12/2020 06:00 456.84 0.00 -- 76.2 7.0
08/12/2020 05:00 456.85 0.00 -- 77.8 7.0
08/12/2020 04:00 456.85 0.00 -- 78.2 7.0
08/12/2020 03:00 456.85 0.00 -- 79.1 7.0
08/12/2020 02:00 456.85 0.00 -- 80.2 7.0
08/12/2020 01:00 456.85 0.00 -- 80.4 7.0
08/12/2020 00:00 456.86 0.00 0.00 76.0 7.0
08/11/2020 23:00 456.86 0.00 -- 76.8 7.0
08/11/2020 22:00 456.86 0.00 -- 79.5 7.0
08/11/2020 21:00 456.87 0.00 -- 82.7 7.0
08/11/2020 20:00 456.87 0.00 -- 90.2 7.8
08/11/2020 19:00 456.87 0.00 -- 92.3 7.8
08/11/2020 18:00 456.87 0.00 -- 93.6 8.0
08/11/2020 17:00 456.88 0.00 -- 94.2 8.0
08/11/2020 16:00 456.88 0.00 -- 93.7 8.0
08/11/2020 15:00 456.86 0.00 -- 94.4 7.8
08/11/2020 14:00 456.87 0.00 -- 92.9 7.5
08/11/2020 13:00 456.86 0.00 -- 88.8 7.0
08/11/2020 12:00 456.86 0.00 -- 87.1 7.0
08/11/2020 11:00 456.86 0.00 -- 83.5 7.0
08/11/2020 10:00 456.86 0.00 -- 78.5 7.0
08/11/2020 09:00 456.86 0.00 -- 72.2 7.0
08/11/2020 08:00 456.86 0.00 -- 68.1 7.0
08/11/2020 07:00 456.86 0.00 -- 66.5 7.0
08/11/2020 06:00 456.86 0.00 -- 68.0 7.0
08/11/2020 05:00 456.87 0.00 -- 67.7 7.5
08/11/2020 04:00 456.87 0.00 -- 69.1 8.0
08/11/2020 03:00 456.87 0.00 -- 69.7 8.0
08/11/2020 02:00 456.88 0.00 -- 69.7 8.0
08/11/2020 01:00 456.88 0.00 -- 71.3 8.0
08/11/2020 00:00 456.88 0.00 0.00 73.6 8.0
08/10/2020 23:00 456.88 0.00 -- 74.0 8.0
08/10/2020 22:00 456.88 0.00 -- 75.3 8.0
08/10/2020 21:00 456.88 0.00 -- 78.9 8.0
08/10/2020 20:00 456.88 0.00 -- 84.3 8.0
08/10/2020 19:00 456.89 0.00 -- 89.0 8.0
08/10/2020 18:00 456.89 0.00 -- 88.7 8.0
08/10/2020 17:00 456.89 0.00 -- 89.3 8.0
08/10/2020 16:00 456.88 0.00 -- 90.8 8.0
08/10/2020 15:00 456.88 0.00 -- 87.0 8.0
08/10/2020 14:00 456.88 0.00 -- 83.2 8.0
08/10/2020 13:00 456.88 0.00 -- 81.1 8.0
08/10/2020 12:00 456.88 0.00 -- 78.6 8.0
08/10/2020 11:00 456.88 0.00 -- 81.9 8.0
08/10/2020 10:00 456.88 0.00 -- 76.7 8.0
08/10/2020 09:00 456.88 0.00 -- 70.9 8.0
08/10/2020 08:00 456.88 0.00 -- 68.9 8.0
08/10/2020 07:00 456.88 0.00 -- 69.5 8.0
08/10/2020 06:00 456.89 0.00 -- 69.3 8.0
08/10/2020 05:00 456.89 0.00 -- 69.4 8.0
08/10/2020 04:00 456.89 0.00 -- 68.0 8.0
08/10/2020 03:00 456.89 0.00 -- 70.2 8.0
08/10/2020 02:00 456.89 0.00 -- 72.8 8.0
08/10/2020 01:00 456.90 0.00 -- 73.2 8.0
08/10/2020 00:00 456.90 0.00 0.00 73.6 8.0
08/09/2020 23:00 456.90 0.00 -- 74.0 8.0
08/09/2020 22:00 456.90 0.00 -- 76.8 8.0
08/09/2020 21:00 456.91 0.00 -- 78.3 8.0
08/09/2020 20:00 456.91 0.00 -- 83.7 8.0
08/09/2020 19:00 456.91 0.00 -- 85.9 8.0
08/09/2020 18:00 456.92 0.00 -- 88.8 8.0
08/09/2020 17:00 456.92 0.00 -- 88.2 8.0
08/09/2020 16:00 456.91 0.00 -- 88.9 8.0
08/09/2020 15:00 456.92 0.00 -- 84.7 8.0
08/09/2020 14:00 456.91 0.00 -- 85.1 8.0
08/09/2020 13:00 456.90 0.00 -- 82.3 8.0
08/09/2020 12:00 456.90 0.00 -- 80.8 8.0
08/09/2020 11:00 456.90 0.00 -- 78.6 8.0
08/09/2020 10:00 456.89 0.00 -- 74.3 8.0
08/09/2020 09:00 456.89 0.00 -- 67.1 8.0
08/09/2020 08:00 456.89 0.00 -- 64.5 8.0
08/09/2020 07:00 456.89 0.00 -- 64.0 8.0
08/09/2020 06:00 456.90 0.00 -- 62.9 8.0
08/09/2020 05:00 456.90 0.00 -- 63.4 8.0
08/09/2020 04:00 456.90 0.00 -- 63.6 8.0
08/09/2020 03:00 456.90 0.00 -- 64.6 8.0
08/09/2020 02:00 456.90 0.00 -- 64.9 8.0
08/09/2020 01:00 456.91 0.00 -- 67.2 8.0
08/09/2020 00:00 456.91 0.00 0.00 67.4 8.0
08/08/2020 23:00 456.91 0.00 -- 69.1 8.0
08/08/2020 22:00 456.91 0.00 -- 71.0 8.0
08/08/2020 21:00 456.92 0.00 -- 74.5 8.0
08/08/2020 20:00 456.92 0.00 -- 76.2 9.0
08/08/2020 19:00 456.92 0.01 -- 79.5 8.5
08/08/2020 18:00 456.92 0.00 -- 74.5 8.3
08/08/2020 17:00 456.91 0.00 -- 84.3 8.0
08/08/2020 16:00 456.91 0.00 -- 84.0 8.0
08/08/2020 15:00 456.90 0.00 -- 83.4 8.0
08/08/2020 14:00 456.91 0.00 -- 81.3 8.0
08/08/2020 13:00 456.90 0.00 -- 77.6 8.0
08/08/2020 12:00 456.90 0.00 -- 76.7 8.0
08/08/2020 11:00 456.90 0.00 -- 72.8 8.0
08/08/2020 10:00 456.90 0.00 -- 71.3 8.0
08/08/2020 09:00 456.90 0.00 -- 65.9 8.0
08/08/2020 08:00 456.90 0.00 -- 63.5 8.0
08/08/2020 07:00 456.90 0.00 -- 62.8 8.0
08/08/2020 06:00 456.90 0.00 -- 62.9 8.0
08/08/2020 05:00 456.90 0.00 -- 64.0 8.0
08/08/2020 04:00 456.91 0.00 -- 64.2 8.0
08/08/2020 03:00 456.91 0.00 -- 64.2 8.0
08/08/2020 02:00 456.91 0.00 -- 63.0 8.0
08/08/2020 01:00 456.91 0.00 -- 64.6 8.0
08/08/2020 00:00 456.91 0.00 0.01 64.8 8.0
08/07/2020 23:00 456.91 0.00 -- 66.5 8.0
08/07/2020 22:00 456.91 0.00 -- 70.3 8.0
08/07/2020 21:00 456.92 0.00 -- 76.1 8.0
08/07/2020 20:00 456.92 0.00 -- 80.1 8.5
08/07/2020 19:00 456.92 0.00 -- 82.7 8.8
08/07/2020 18:00 456.92 0.00 -- 82.4 9.0
08/07/2020 17:00 456.92 0.00 -- 83.0 8.5
08/07/2020 16:00 456.93 0.00 -- 85.7 8.3
08/07/2020 15:00 456.92 0.00 -- 84.5 8.8
08/07/2020 14:00 456.92 0.00 -- 82.6 8.5
08/07/2020 13:00 456.92 0.00 -- 79.8 8.0
08/07/2020 12:00 456.91 0.00 -- 77.9 8.0
08/07/2020 11:00 456.91 0.00 -- 69.1 8.0
08/07/2020 10:00 456.91 0.00 -- 63.2 8.0
08/07/2020 09:00 456.91 0.00 -- 60.7 8.0
08/07/2020 08:00 456.91 0.00 -- 57.9 8.0
08/07/2020 07:00 456.91 0.00 -- 57.0 8.0
08/07/2020 06:00 456.91 0.00 -- 56.8 8.0
08/07/2020 05:00 456.91 0.00 -- 56.9 8.0
08/07/2020 04:00 456.92 0.00 -- 58.3 8.0
08/07/2020 03:00 456.92 0.00 -- 57.6 9.0
08/07/2020 02:00 456.92 0.00 -- 59.0 9.0
08/07/2020 01:00 456.92 0.00 -- 61.4 9.0
08/07/2020 00:00 456.93 0.00 0.00 62.0 9.0
08/06/2020 23:00 456.93 0.00 -- 64.1 9.0
08/06/2020 22:00 456.93 0.00 -- 65.7 9.0
08/06/2020 21:00 456.93 0.00 -- 71.5 9.0
08/06/2020 20:00 456.93 0.00 -- 75.5 9.0
08/06/2020 19:00 456.93 0.00 -- 79.7 9.0
08/06/2020 18:00 456.94 0.00 -- 79.0 9.0
08/06/2020 17:00 456.93 0.00 -- 81.5 9.0
08/06/2020 16:00 456.93 0.00 -- 79.8 9.0
08/06/2020 15:00 456.93 0.00 -- 76.8 9.0
08/06/2020 14:00 456.93 0.00 -- 76.7 9.0
08/06/2020 13:00 456.93 0.00 -- 74.6 9.0
08/06/2020 12:00 456.93 0.00 -- 72.4 9.0
08/06/2020 11:00 456.92 0.00 -- 73.1 8.5
08/06/2020 10:00 456.92 0.00 -- 63.7 8.3
08/06/2020 09:00 456.92 0.00 -- 59.9 8.0
08/06/2020 08:00 456.92 0.00 -- 56.5 8.0
08/06/2020 07:00 456.92 0.00 -- 56.8 8.0
08/06/2020 06:00 456.92 0.00 -- 56.2 8.3
08/06/2020 05:00 456.92 0.00 -- 58.4 8.5
08/06/2020 04:00 456.92 0.00 -- 58.9 8.8
08/06/2020 03:00 456.92 0.00 -- 60.4 9.0
08/06/2020 02:00 456.92 0.00 -- 64.8 9.0
08/06/2020 01:00 456.92 0.00 -- 68.2 9.0
08/06/2020 00:00 456.92 0.00 0.00 67.7 9.0
08/05/2020 23:00 456.92 0.00 -- 68.5 9.0
08/05/2020 22:00 456.93 0.00 -- 72.2 9.0
08/05/2020 21:00 456.93 0.00 -- 77.0 9.0
08/05/2020 20:00 456.94 0.00 -- 80.2 9.0
08/05/2020 19:00 456.93 0.00 -- 83.0 9.0
08/05/2020 18:00 456.94 0.00 -- 84.6 9.0
08/05/2020 17:00 456.94 0.00 -- 84.4 9.0
08/05/2020 16:00 456.93 0.00 -- 86.1 8.8
08/05/2020 15:00 456.94 0.00 -- 83.4 9.0
08/05/2020 14:00 456.93 0.00 -- 82.7 8.8
08/05/2020 13:00 456.94 0.00 -- 81.5 8.5
08/05/2020 12:00 456.91 0.00 -- 79.2 8.0
08/05/2020 11:00 456.91 0.00 -- 76.4 8.0
08/05/2020 10:00 456.89 0.00 -- 74.1 8.0
08/05/2020 09:00 456.90 0.00 -- 70.6 8.0
08/05/2020 08:00 456.89 0.00 -- 67.6 8.0
08/05/2020 07:00 456.89 0.00 -- 66.8 8.0
08/05/2020 06:00 456.89 0.00 -- 68.0 8.0
08/05/2020 05:00 456.89 0.00 -- 69.1 8.0
08/05/2020 04:00 456.88 0.00 -- 69.0 8.0
08/05/2020 03:00 456.88 0.00 -- 69.3 8.0
08/05/2020 02:00 456.89 0.00 -- 70.0 8.0
08/05/2020 01:00 456.90 0.00 -- 70.9 8.0
08/05/2020 00:00 456.89 0.02 0.00 70.1 8.0
08/04/2020 23:00 456.87 0.01 -- 71.0 8.0
08/04/2020 22:00 456.88 0.01 -- 73.1 8.0
08/04/2020 21:00 456.88 0.36 -- 74.0 7.3
08/04/2020 20:00 456.84 0.40 -- 69.8 7.0
08/04/2020 19:00 456.81 0.00 -- 69.1 6.0
08/04/2020 18:00 456.81 0.00 -- 70.4 6.0
08/04/2020 17:00 456.82 0.00 -- 72.0 6.8
08/04/2020 16:00 456.82 0.00 -- 73.7 7.0
08/04/2020 15:00 456.82 0.00 -- 74.5 7.0
08/04/2020 14:00 456.82 0.00 -- 74.5 7.0
08/04/2020 13:00 456.82 0.00 -- 74.1 7.0
08/04/2020 12:00 456.82 0.00 -- 73.0 7.0
08/04/2020 11:00 456.82 0.00 -- 72.4 7.0
08/04/2020 10:00 456.82 0.00 -- 70.0 7.0
08/04/2020 09:00 456.82 0.00 -- 67.2 7.0
08/04/2020 08:00 456.82 0.00 -- 66.3 7.0
08/04/2020 07:00 456.83 0.00 -- 65.3 7.0
08/04/2020 06:00 456.83 0.00 -- 65.2 7.0
08/04/2020 05:00 456.83 0.00 -- 65.2 7.0
08/04/2020 04:00 456.83 0.00 -- 65.7 7.0
08/04/2020 03:00 456.83 0.00 -- 64.9 7.0
08/04/2020 02:00 456.84 0.00 -- 66.3 7.0
08/04/2020 01:00 456.84 0.00 -- 67.1 7.0
08/04/2020 00:00 456.84 0.00 0.80 68.0 7.0
08/03/2020 23:00 456.84 0.00 -- 68.3 7.0
08/03/2020 22:00 456.84 0.00 -- 72.4 7.0
08/03/2020 21:00 456.85 0.00 -- 77.2 7.0
08/03/2020 20:00 456.86 0.00 -- 80.6 7.0
08/03/2020 19:00 456.86 0.00 -- 82.7 7.0
08/03/2020 18:00 456.87 0.00 -- 82.6 7.0
08/03/2020 17:00 456.86 0.00 -- 83.6 7.0
08/03/2020 16:00 456.85 0.00 -- 85.8 7.3
08/03/2020 15:00 456.88 0.00 -- 82.6 7.5
08/03/2020 14:00 456.87 0.00 -- 83.2 7.5
08/03/2020 13:00 456.89 0.00 -- 83.3 7.5
08/03/2020 12:00 456.86 0.00 -- 80.8 7.3
08/03/2020 11:00 456.87 0.00 -- 79.5 8.0
08/03/2020 10:00 456.85 0.00 -- 78.1 7.0
08/03/2020 09:00 456.85 0.00 -- 74.9 7.0
08/03/2020 08:00 456.85 0.00 -- 71.6 7.0
08/03/2020 07:00 456.85 0.00 -- 70.3 7.0
08/03/2020 06:00 456.85 0.01 -- 71.6 7.0
08/03/2020 05:00 456.86 0.00 -- 71.8 7.0
08/03/2020 04:00 456.86 0.00 -- 71.5 7.0
08/03/2020 03:00 456.86 0.00 -- 71.2 7.0
08/03/2020 02:00 456.85 0.02 -- 71.3 7.0
08/03/2020 01:00 456.86 0.02 -- 71.5 7.0
08/03/2020 00:00 456.86 0.04 0.05 71.8 7.0
08/02/2020 23:00 456.85 0.09 -- 73.1 7.0
08/02/2020 22:00 456.85 0.00 -- 75.3 7.0
08/02/2020 21:00 456.85 0.00 -- 74.7 7.0
08/02/2020 20:00 456.85 0.00 -- 75.5 7.0
08/02/2020 19:00 456.85 0.00 -- 75.9 7.0
08/02/2020 18:00 456.86 0.00 -- 75.7 7.0
08/02/2020 17:00 456.86 0.00 -- 79.2 7.0
08/02/2020 16:00 456.86 0.00 -- 75.8 7.0
08/02/2020 15:00 456.86 0.00 -- 81.3 7.0
08/02/2020 14:00 456.85 0.00 -- 81.6 7.0
08/02/2020 13:00 456.85 0.00 -- 81.2 7.0
08/02/2020 12:00 456.85 0.00 -- 79.1 7.0
08/02/2020 11:00 456.85 0.00 -- 75.6 7.0
08/02/2020 10:00 456.85 0.00 -- 71.6 7.0
08/02/2020 09:00 456.85 0.00 -- 69.4 7.0
08/02/2020 08:00 456.85 0.00 -- 65.2 7.0
08/02/2020 07:00 456.86 0.00 -- 64.4 7.0
08/02/2020 06:00 456.86 0.00 -- 64.6 7.0
08/02/2020 05:00 456.86 0.00 -- 64.0 7.0
08/02/2020 04:00 456.87 0.00 -- 65.1 7.3
08/02/2020 03:00 456.87 0.00 -- 66.3 8.0
08/02/2020 02:00 456.87 0.00 -- 68.3 8.0
08/02/2020 01:00 456.87 0.00 -- 69.1 8.0
08/02/2020 00:00 456.88 0.00 0.13 71.8 8.0
08/01/2020 23:00 456.88 0.00 -- 73.1 8.0
08/01/2020 22:00 456.88 0.00 -- 75.6 8.0
08/01/2020 21:00 456.88 0.00 -- 79.3 8.0
08/01/2020 20:00 456.88 0.00 -- 84.4 8.0
08/01/2020 19:00 456.88 0.00 -- 81.2 8.0
08/01/2020 18:00 456.88 0.00 -- 87.0 8.0
08/01/2020 17:00 456.88 0.00 -- 89.2 8.0
08/01/2020 16:00 456.89 0.00 -- 85.9 8.0
08/01/2020 15:00 456.88 0.00 -- 85.3 8.0
08/01/2020 14:00 456.88 0.00 -- 84.8 8.0
08/01/2020 13:00 456.88 0.00 -- 83.9 8.0
08/01/2020 12:00 456.88 0.00 -- 81.0 8.0
08/01/2020 11:00 456.88 0.00 -- 79.4 8.0
08/01/2020 10:00 456.88 0.00 -- 75.1 8.0
08/01/2020 09:00 456.88 0.00 -- 69.4 8.0
08/01/2020 08:00 456.88 0.00 -- 64.1 8.0
08/01/2020 07:00 456.88 0.00 -- 63.1 8.0
08/01/2020 06:00 456.88 0.00 -- 64.7 8.0
08/01/2020 05:00 456.89 0.00 -- 64.3 8.0
08/01/2020 04:00 456.89 0.00 -- 64.8 8.0
08/01/2020 03:00 456.89 0.00 -- 66.2 8.0
08/01/2020 02:00 456.90 0.00 -- 66.5 8.0
08/01/2020 01:00 456.90 0.00 -- 65.9 8.0
08/01/2020 00:00 456.90 0.00 0.00 68.9 8.0
07/31/2020 23:00 456.91 0.00 -- 70.2 8.0
07/31/2020 22:00 456.90 0.00 -- 72.7 8.0
07/31/2020 21:00 456.91 0.00 -- 76.6 8.0
07/31/2020 20:00 456.91 0.00 -- 78.9 8.0
07/31/2020 19:00 456.90 0.00 -- 79.1 8.0
07/31/2020 18:00 456.91 0.00 -- 85.9 8.0
07/31/2020 17:00 456.91 0.00 -- 84.3 8.0
07/31/2020 16:00 456.91 0.00 -- 80.3 8.0
07/31/2020 15:00 456.91 0.00 -- 84.2 8.0
07/31/2020 14:00 456.91 0.00 -- 84.0 8.0
07/31/2020 13:00 456.91 0.00 -- 80.9 8.0
07/31/2020 12:00 456.91 0.00 -- 78.6 8.0
07/31/2020 11:00 456.91 0.00 -- 76.2 8.0
07/31/2020 10:00 456.91 0.00 -- 73.2 8.0
07/31/2020 09:00 456.91 0.00 -- 67.3 8.0
07/31/2020 08:00 456.91 0.00 -- 62.2 8.0
07/31/2020 07:00 456.91 0.00 -- 60.3 8.0
07/31/2020 06:00 456.91 0.00 -- 62.3 8.0
07/31/2020 05:00 456.92 0.00 -- 62.0 8.3
07/31/2020 04:00 456.92 0.00 -- 62.4 8.5
07/31/2020 03:00 456.92 0.00 -- 65.3 9.0
07/31/2020 02:00 456.93 0.00 -- 64.8 9.0
07/31/2020 01:00 456.93 0.00 -- 66.8 9.0
07/31/2020 00:00 456.93 0.00 0.00 68.4 9.0
07/30/2020 23:00 456.94 0.00 -- 70.2 9.0
07/30/2020 22:00 456.94 0.00 -- 72.2 9.0
07/30/2020 21:00 456.94 0.00 -- 74.5 9.0
07/30/2020 20:00 456.94 0.00 -- 77.3 9.0
07/30/2020 19:00 456.94 0.00 -- 80.0 9.0
07/30/2020 18:00 456.94 0.24 -- 77.7 9.3
07/30/2020 17:00 456.92 0.00 -- 82.0 9.0
07/30/2020 16:00 456.93 0.00 -- 85.3 9.0
07/30/2020 15:00 456.93 0.00 -- 83.3 9.0
07/30/2020 14:00 456.94 0.13 -- 76.1 9.0
07/30/2020 13:00 456.92 0.00 -- 82.1 8.8
07/30/2020 12:00 456.92 0.00 -- 82.9 9.0
07/30/2020 11:00 456.92 0.00 -- 82.5 9.0
07/30/2020 10:00 456.92 0.00 -- 76.5 8.5
07/30/2020 09:00 456.92 0.00 -- 71.4 8.0
07/30/2020 08:00 456.92 0.00 -- 64.8 8.5
07/30/2020 07:00 456.92 0.00 -- 63.5 9.0
07/30/2020 06:00 456.92 0.00 -- 65.4 9.0
07/30/2020 05:00 456.93 0.00 -- 67.4 9.0
07/30/2020 04:00 456.93 0.00 -- 69.7 9.0
07/30/2020 03:00 456.93 0.00 -- 72.0 9.0
07/30/2020 02:00 456.93 0.00 -- 72.0 9.0
07/30/2020 01:00 456.94 0.00 -- 72.8 9.0
07/30/2020 00:00 456.94 0.00 0.37 73.7 9.0
07/29/2020 23:00 456.94 0.00 -- 76.2 9.0
07/29/2020 22:00 456.95 0.00 -- 77.8 9.0
07/29/2020 21:00 456.95 0.00 -- 81.3 9.0
07/29/2020 20:00 456.96 0.00 -- 85.9 9.8
07/29/2020 19:00 456.96 0.00 -- 87.9 9.8
07/29/2020 18:00 456.97 0.00 -- 88.7 9.8
07/29/2020 17:00 456.97 0.00 -- 89.8 9.8
07/29/2020 16:00 456.97 0.00 -- 88.3 10.0
07/29/2020 15:00 456.97 0.00 -- 87.8 10.0
07/29/2020 14:00 456.96 0.00 -- 87.3 9.0
07/29/2020 13:00 456.95 0.00 -- 84.6 9.0
07/29/2020 12:00 456.95 0.00 -- 84.2 9.0
07/29/2020 11:00 456.95 0.00 -- 78.1 9.0
07/29/2020 10:00 456.95 0.00 -- 75.5 9.0
07/29/2020 09:00 456.95 0.00 -- 68.6 9.0
07/29/2020 08:00 456.95 0.00 -- 63.4 9.0
07/29/2020 07:00 456.95 0.00 -- 61.5 9.0
07/29/2020 06:00 456.96 0.00 -- 62.3 9.5
07/29/2020 05:00 456.96 0.00 -- 63.7 9.8
07/29/2020 04:00 456.96 0.00 -- 62.8 10.0
07/29/2020 03:00 456.96 0.00 -- 66.7 10.0
07/29/2020 02:00 456.97 0.00 -- 66.4 10.0
07/29/2020 01:00 456.97 0.00 -- 67.8 10.0
07/29/2020 00:00 456.97 0.00 0.00 70.6 10.0
07/28/2020 23:00 456.98 0.00 -- 71.2 10.3
07/28/2020 22:00 456.98 0.00 -- 74.7 11.0
07/28/2020 21:00 456.99 0.00 -- 78.4 11.0
07/28/2020 20:00 456.99 0.00 -- 83.3 11.3
07/28/2020 19:00 457.00 0.00 -- 86.3 12.0
07/28/2020 18:00 457.00 0.00 -- 88.6 11.5
07/28/2020 17:00 457.00 0.00 -- 86.9 11.8
07/28/2020 16:00 457.00 0.00 -- 86.9 11.3
07/28/2020 15:00 456.99 0.00 -- 86.7 11.0
07/28/2020 14:00 456.99 0.00 -- 85.0 11.0
07/28/2020 13:00 456.99 0.00 -- 79.4 11.0
07/28/2020 12:00 456.99 0.00 -- 79.5 11.0
07/28/2020 11:00 456.99 0.00 -- 83.4 11.0
07/28/2020 10:00 456.99 0.00 -- 82.4 11.0
07/28/2020 09:00 456.99 0.00 -- 79.5 11.0
07/28/2020 08:00 456.99 0.00 -- 74.2 11.0
07/28/2020 07:00 457.00 0.00 -- 72.7 11.3
07/28/2020 06:00 457.00 0.00 -- 73.3 12.0
07/28/2020 05:00 457.00 0.00 -- 75.9 12.0
07/28/2020 04:00 457.00 0.00 -- 76.9 12.0
07/28/2020 03:00 457.01 0.00 -- 78.4 12.0
07/28/2020 02:00 457.01 0.00 -- 80.7 12.0
07/28/2020 01:00 457.01 0.00 -- 80.2 12.5
07/28/2020 00:00 457.02 0.00 0.00 82.6 12.5
07/27/2020 23:00 457.02 0.00 -- 84.7 13.0
07/27/2020 22:00 457.02 0.00 -- 85.8 13.0
07/27/2020 21:00 457.02 0.00 -- 86.8 13.0
07/27/2020 20:00 457.03 0.00 -- 90.2 13.5
07/27/2020 19:00 457.03 0.00 -- 91.8 13.8
07/27/2020 18:00 457.03 0.00 -- 91.7 13.8
07/27/2020 17:00 457.03 0.00 -- 93.2 13.5
07/27/2020 16:00 457.02 0.00 -- 91.2 13.5
07/27/2020 15:00 457.03 0.00 -- 89.9 13.0
07/27/2020 14:00 457.03 0.00 -- 90.7 13.5
07/27/2020 13:00 457.03 0.00 -- 88.4 13.0
07/27/2020 12:00 457.03 0.00 -- 84.2 13.0
07/27/2020 11:00 457.03 0.00 -- 83.0 13.8
07/27/2020 10:00 457.03 0.00 -- 80.4 14.0
07/27/2020 09:00 457.04 0.00 -- 79.8 14.0
07/27/2020 08:00 457.04 0.00 -- 80.3 13.8
07/27/2020 07:00 457.04 0.00 -- 77.8 14.0
07/27/2020 06:00 457.04 0.00 -- 78.4 14.0
07/27/2020 05:00 457.04 0.00 -- 79.9 14.0
07/27/2020 04:00 457.03 0.00 -- 82.0 14.0
07/27/2020 03:00 457.05 0.00 -- 79.1 14.8
07/27/2020 02:00 457.05 0.00 -- 78.9 14.0
07/27/2020 01:00 457.04 0.00 -- 77.9 14.0
07/27/2020 00:00 457.05 0.00 0.00 79.9 14.5
07/26/2020 23:00 457.05 0.00 -- 81.0 14.8
07/26/2020 22:00 457.06 0.00 -- 81.7 16.0
07/26/2020 21:00 457.05 0.00 -- 82.0 15.8
07/26/2020 20:00 457.06 0.00 -- 82.7 16.8
07/26/2020 19:00 457.06 0.00 -- 83.6 17.0
07/26/2020 18:00 457.06 0.00 -- 86.7 16.5
07/26/2020 17:00 457.06 0.00 -- 91.1 16.0
07/26/2020 16:00 457.06 0.00 -- 86.3 16.5
07/26/2020 15:00 457.05 0.00 -- 85.2 16.0
07/26/2020 14:00 457.05 0.00 -- 80.3 15.0
07/26/2020 13:00 457.05 0.00 -- 77.8 15.3
07/26/2020 12:00 457.05 0.00 -- 77.3 15.5
07/26/2020 11:00 457.06 0.00 -- 74.9 15.8
07/26/2020 10:00 457.05 0.00 -- 72.5 15.3
07/26/2020 09:00 457.05 0.00 -- 70.5 15.5
07/26/2020 08:00 457.05 0.00 -- 68.2 15.5
07/26/2020 07:00 457.06 0.00 -- 63.5 16.0
07/26/2020 06:00 457.06 0.00 -- 64.3 16.0
07/26/2020 05:00 457.06 0.00 -- 63.0 16.0
07/26/2020 04:00 457.06 0.00 -- 63.7 17.0
07/26/2020 03:00 457.07 0.00 -- 64.8 17.0
07/26/2020 02:00 457.07 0.00 -- 66.0 17.0
07/26/2020 01:00 457.07 0.00 -- 67.2 17.0
07/26/2020 00:00 457.07 0.00 0.00 68.0 17.5
07/25/2020 23:00 457.08 0.00 -- 70.6 18.0
07/25/2020 22:00 457.08 0.00 -- 73.5 18.0
07/25/2020 21:00 457.08 0.00 -- 81.2 18.8
07/25/2020 20:00 457.09 0.00 -- 82.4 18.8
07/25/2020 19:00 457.09 0.00 -- 85.9 18.3
07/25/2020 18:00 457.09 0.00 -- 87.4 18.8
07/25/2020 17:00 457.09 0.00 -- 86.3 18.3
07/25/2020 16:00 457.09 0.00 -- 86.2 18.0
07/25/2020 15:00 457.08 0.00 -- 88.7 18.0
07/25/2020 14:00 457.08 0.00 -- 83.3 18.0
07/25/2020 13:00 457.08 0.00 -- 85.1 18.0
07/25/2020 12:00 457.08 0.00 -- 84.3 18.0
07/25/2020 11:00 457.08 0.00 -- 77.0 18.0
07/25/2020 10:00 457.07 0.00 -- 72.1 17.5
07/25/2020 09:00 457.07 0.00 -- 67.7 17.8
07/25/2020 08:00 457.08 0.00 -- 63.4 18.0
07/25/2020 07:00 457.08 0.00 -- 60.5 18.0
07/25/2020 06:00 457.08 0.00 -- 62.4 18.0
07/25/2020 05:00 457.09 0.00 -- 62.3 18.3
07/25/2020 04:00 457.09 0.00 -- 62.9 19.0
07/25/2020 03:00 457.09 0.00 -- 64.2 19.0
07/25/2020 02:00 457.09 0.00 -- 65.6 19.0
07/25/2020 01:00 457.09 0.00 -- 67.9 19.0
07/25/2020 00:00 457.09 0.00 0.00 71.0 19.0
07/24/2020 23:00 457.09 0.00 -- 71.0 19.0
07/24/2020 22:00 457.10 0.00 -- 74.0 19.0
07/24/2020 21:00 457.10 0.00 -- 79.1 19.3
07/24/2020 20:00 457.10 0.00 -- 81.7 19.8
07/24/2020 19:00 457.10 0.00 -- 84.2 20.0
07/24/2020 18:00 457.10 0.00 -- 88.3 20.0
07/24/2020 17:00 457.11 0.00 -- 87.5 19.5
07/24/2020 16:00 457.10 0.00 -- 87.6 19.5
07/24/2020 15:00 457.10 0.00 -- 86.2 19.0
07/24/2020 14:00 457.10 0.00 -- 83.8 19.0
07/24/2020 13:00 457.10 0.00 -- 80.6 19.0
07/24/2020 12:00 457.10 0.00 -- 79.1 19.0
07/24/2020 11:00 457.10 0.00 -- 75.0 19.0
07/24/2020 10:00 457.10 0.00 -- 73.3 19.0
07/24/2020 09:00 457.09 0.00 -- 66.8 19.0
07/24/2020 08:00 457.10 0.00 -- 64.7 19.0
07/24/2020 07:00 457.09 0.00 -- 63.1 19.0
07/24/2020 06:00 457.10 0.00 -- 65.3 19.0
07/24/2020 05:00 457.10 0.00 -- 64.9 19.5
07/24/2020 04:00 457.10 0.00 -- 66.3 19.8
07/24/2020 03:00 457.10 0.00 -- 67.5 20.0
07/24/2020 02:00 457.11 0.00 -- 69.4 20.0
07/24/2020 01:00 457.11 0.00 -- 70.9 20.0
07/24/2020 00:00 457.11 0.00 0.00 72.0 20.5
07/23/2020 23:00 457.11 0.00 -- 72.9 20.5
07/23/2020 22:00 457.12 0.00 -- 74.8 20.5
07/23/2020 21:00 457.11 0.00 -- 77.5 20.0
07/23/2020 20:00 457.12 0.00 -- 79.0 20.3
07/23/2020 19:00 457.11 0.00 -- 80.0 20.0
07/23/2020 18:00 457.11 0.00 -- 80.9 20.0
07/23/2020 17:00 457.10 0.00 -- 81.9 20.0
07/23/2020 16:00 457.11 0.00 -- 78.7 20.0
07/23/2020 15:00 457.11 0.00 -- 79.1 20.0
07/23/2020 14:00 457.11 0.00 -- 79.5 20.0
07/23/2020 13:00 457.10 0.00 -- 73.1 20.0
07/23/2020 12:00 457.10 0.00 -- 71.9 20.0
07/23/2020 11:00 457.10 0.00 -- 68.4 20.0
07/23/2020 10:00 457.10 0.00 -- 66.9 20.0
07/23/2020 09:00 457.10 0.00 -- 65.8 20.0
07/23/2020 08:00 457.10 0.00 -- 65.7 20.0
07/23/2020 07:00 457.11 0.00 -- 64.1 20.0
07/23/2020 06:00 457.11 0.00 -- 65.2 20.0
07/23/2020 05:00 457.11 0.00 -- 65.3 20.0
07/23/2020 04:00 457.11 0.00 -- 65.6 20.0
07/23/2020 03:00 457.11 0.00 -- 65.8 20.0
07/23/2020 02:00 457.11 0.00 -- 65.8 19.8
07/23/2020 01:00 457.10 0.00 -- 65.6 19.8
07/23/2020 00:00 457.09 0.00 0.00 69.1 18.5
07/22/2020 23:00 457.09 0.00 -- 70.2 18.8
07/22/2020 22:00 457.09 0.00 -- 71.7 19.0
07/22/2020 21:00 457.09 0.00 -- 72.8 19.0
07/22/2020 20:00 457.10 0.00 -- 73.5 19.0
07/22/2020 19:00 457.10 0.00 -- 74.2 19.0
07/22/2020 18:00 457.10 0.00 -- 75.7 19.3
07/22/2020 17:00 457.10 0.00 -- 76.9 19.0
07/22/2020 16:00 457.10 0.00 -- 76.2 19.8
07/22/2020 15:00 457.11 0.00 -- 77.1 19.8
07/22/2020 14:00 457.11 0.00 -- 77.9 20.0
07/22/2020 13:00 457.10 0.00 -- 73.9 20.0
07/22/2020 12:00 457.10 0.00 -- 74.2 19.0
07/22/2020 11:00 457.10 0.00 -- 72.7 19.0
07/22/2020 10:00 457.10 0.00 -- 70.4 19.0
07/22/2020 09:00 457.10 0.00 -- 67.6 19.0
07/22/2020 08:00 457.10 0.00 -- 65.3 19.3
07/22/2020 07:00 457.10 0.00 -- 64.2 20.0
07/22/2020 06:00 457.11 0.00 -- 65.2 20.0
07/22/2020 05:00 457.11 0.00 -- 65.5 20.0
07/22/2020 04:00 457.11 0.00 -- 64.7 20.0
07/22/2020 03:00 457.11 0.00 -- 65.3 21.0
07/22/2020 02:00 457.12 0.00 -- 66.9 21.0
07/22/2020 01:00 457.12 0.00 -- 67.7 21.0
07/22/2020 00:00 457.12 0.00 0.00 70.4 21.0